| time (UTC) | temp F | wind direction | speed knots | gust knots | rain 1hr in | rain 24hr in | rain mn in | humidity % | barometer mb |
| 20260906095657 | 64 | 249 | 1.7 | 7.0 | 0.00 | 0.26 | 0.00 | 74 | 1015.6 |
| 20260906095556 | 64 | 290 | 1.7 | 7.0 | 0.00 | 0.26 | 0.00 | 74 | 1015.6 |
| 20260906095457 | 65 | 264 | 1.7 | 6.1 | 0.00 | 0.26 | 0.00 | 74 | 1015.6 |
| 20260906095356 | 65 | 276 | 1.7 | 6.1 | 0.00 | 0.26 | 0.00 | 74 | 1015.5 |
| 20260906095255 | 65 | 226 | 1.7 | 6.1 | 0.00 | 0.26 | 0.00 | 74 | 1015.5 |
| 20260906095158 | 65 | 262 | 1.7 | 6.1 | 0.00 | 0.26 | 0.00 | 74 | 1015.5 |
| 20260906095056 | 65 | 268 | 1.7 | 6.1 | 0.00 | 0.26 | 0.00 | 74 | 1015.5 |
| 20260906094954 | 65 | 208 | 1.7 | 6.1 | 0.00 | 0.26 | 0.00 | 74 | 1015.5 |
| 20260906094850 | 65 | 254 | 1.7 | 6.1 | 0.00 | 0.26 | 0.00 | 74 | 1015.5 |
| 20260906094752 | 65 | 261 | 1.7 | 4.3 | 0.00 | 0.26 | 0.00 | 74 | 1015.5 |
| 20260906094644 | 65 | 287 | 1.7 | 4.3 | 0.00 | 0.26 | 0.00 | 74 | 1015.5 |
| 20260906094545 | 65 | 251 | 1.7 | 4.3 | 0.00 | 0.26 | 0.00 | 74 | 1015.5 |
| 20260906094445 | 65 | 220 | 1.7 | 6.1 | 0.00 | 0.26 | 0.00 | 75 | 1015.5 |
| 20260906094344 | 65 | 313 | 1.7 | 6.1 | 0.00 | 0.26 | 0.00 | 74 | 1015.5 |
| 20260906094243 | 65 | 268 | 1.7 | 6.1 | 0.00 | 0.26 | 0.00 | 74 | 1015.5 |
| 20260906094145 | 65 | 242 | 1.7 | 6.1 | 0.00 | 0.26 | 0.00 | 74 | 1015.5 |
| 20260906094040 | 65 | 242 | 1.7 | 6.1 | 0.00 | 0.26 | 0.00 | 75 | 1015.5 |
| 20260906093939 | 65 | 251 | 1.7 | 6.1 | 0.00 | 0.26 | 0.00 | 75 | 1015.6 |
| 20260906093834 | 65 | 273 | 1.7 | 6.1 | 0.00 | 0.26 | 0.00 | 74 | 1015.6 |
| 20260906093736 | 65 | 220 | 1.7 | 6.1 | 0.00 | 0.26 | 0.00 | 74 | 1015.6 |
| 20260906093635 | 65 | 308 | 1.7 | 6.1 | 0.00 | 0.26 | 0.00 | 75 | 1015.6 |
| 20260906093535 | 65 | 258 | 1.7 | 6.1 | 0.00 | 0.26 | 0.00 | 74 | 1015.6 |
| 20260906093427 | 65 | 262 | 1.7 | 6.1 | 0.00 | 0.26 | 0.00 | 74 | 1015.6 |
| 20260906093328 | 65 | 260 | 1.7 | 4.3 | 0.00 | 0.26 | 0.00 | 74 | 1015.6 |
| 20260906093227 | 65 | 248 | 1.7 | 4.3 | 0.00 | 0.26 | 0.00 | 74 | 1015.6 |
| 20260906093128 | 65 | 292 | 1.7 | 4.3 | 0.00 | 0.26 | 0.00 | 74 | 1015.6 |
| 20260906093027 | 65 | 263 | 1.7 | 4.3 | 0.00 | 0.26 | 0.00 | 74 | 1015.6 |
| 20260906092928 | 65 | 267 | 1.7 | 4.3 | 0.00 | 0.26 | 0.00 | 74 | 1015.6 |
| 20260906092827 | 65 | 255 | 0.9 | 4.3 | 0.00 | 0.26 | 0.00 | 74 | 1015.7 |
| 20260906092726 | 65 | 237 | 0.9 | 4.3 | 0.00 | 0.26 | 0.00 | 74 | 1015.6 |
| 20260906092625 | 65 | 220 | 0.9 | 4.3 | 0.00 | 0.26 | 0.00 | 74 | 1015.6 |
| 20260906092524 | 65 | 255 | 0.9 | 4.3 | 0.00 | 0.26 | 0.00 | 74 | 1015.7 |
| 20260906092421 | 65 | 262 | 0.9 | 3.5 | 0.00 | 0.26 | 0.00 | 74 | 1015.7 |
| 20260906092320 | 65 | 334 | 0.9 | 3.5 | 0.00 | 0.26 | 0.00 | 74 | 1015.7 |
| 20260906092220 | 65 | 149 | 0.9 | 3.5 | 0.00 | 0.26 | 0.00 | 74 | 1015.7 |
| 20260906092120 | 65 | 259 | 0.9 | 2.6 | 0.00 | 0.26 | 0.00 | 74 | 1015.7 |
| 20260906092018 | 65 | 210 | 0.9 | 2.6 | 0.00 | 0.26 | 0.00 | 74 | 1015.7 |
| 20260906091919 | 65 | 137 | 0.9 | 2.6 | 0.00 | 0.26 | 0.00 | 75 | 1015.7 |
| 20260906091816 | 65 | 256 | 0.9 | 2.6 | 0.00 | 0.26 | 0.00 | 75 | 1015.7 |
| 20260906091715 | 64 | 251 | 0.9 | 2.6 | 0.00 | 0.26 | 0.00 | 75 | 1015.7 |
| 20260906091614 | 64 | 96 | 0.9 | 2.6 | 0.00 | 0.26 | 0.00 | 75 | 1015.7 |
| 20260906091516 | 64 | 180 | 0.9 | 2.6 | 0.00 | 0.26 | 0.00 | 75 | 1015.7 |
| 20260906091415 | 64 | 249 | 0.9 | 3.5 | 0.00 | 0.26 | 0.00 | 75 | 1015.7 |
| 20260906091312 | 64 | 139 | 0.9 | 3.5 | 0.00 | 0.26 | 0.00 | 75 | 1015.7 |
| 20260906091212 | 64 | 224 | 0.9 | 3.5 | 0.00 | 0.26 | 0.00 | 74 | 1015.6 |
| 20260906091112 | 64 | 254 | 0.9 | 3.5 | 0.00 | 0.26 | 0.00 | 74 | 1015.6 |
| 20260906091008 | 64 | 244 | 0.9 | 3.5 | 0.00 | 0.26 | 0.00 | 74 | 1015.6 |
| 20260906090908 | 64 | 243 | 0.9 | 3.5 | 0.00 | 0.26 | 0.00 | 74 | 1015.6 |
| 20260906090808 | 64 | 269 | 0.9 | 3.5 | 0.00 | 0.26 | 0.00 | 74 | 1015.6 |
| 20260906090708 | 64 | 205 | 0.9 | 3.5 | 0.00 | 0.26 | 0.00 | 74 | 1015.5 |
| 20260906090605 | 64 | 231 | 0.9 | 3.5 | 0.00 | 0.26 | 0.00 | 73 | 1015.5 |
| 20260906090504 | 64 | 189 | 0.9 | 3.5 | 0.00 | 0.26 | 0.00 | 73 | 1015.6 |
| 20260906090404 | 64 | 254 | 0.9 | 2.6 | 0.00 | 0.26 | 0.00 | 74 | 1015.5 |
| 20260906090303 | 64 | 251 | 0.9 | 2.6 | 0.00 | 0.26 | 0.00 | 73 | 1015.5 |
| 20260906090203 | 64 | 318 | 0.9 | 2.6 | 0.00 | 0.26 | 0.00 | 74 | 1015.5 |
| 20260906090103 | 64 | 320 | 0.9 | 2.6 | 0.00 | 0.26 | 0.00 | 74 | 1015.6 |
| 20260906090006 | 64 | 354 | 0.9 | 2.6 | 0.00 | 0.26 | 0.00 | 74 | 1015.6 |
| 20260906085905 | 64 | 168 | 0.9 | 2.6 | 0.00 | 0.26 | 0.00 | 74 | 1015.6 |
| 20260906085757 | 64 | 226 | 0.9 | 2.6 | 0.00 | 0.26 | 0.00 | 73 | 1015.5 |
| 20260906085658 | 64 | 206 | 0.9 | 2.6 | 0.00 | 0.26 | 0.00 | 73 | 1015.5 |
| 20260906085557 | 64 | 237 | 0.9 | 2.6 | 0.00 | 0.26 | 0.00 | 73 | 1015.5 |
| 20260906085457 | 64 | 180 | 0.9 | 2.6 | 0.00 | 0.26 | 0.00 | 73 | 1015.6 |
| 20260906085354 | 64 | 224 | 0.9 | 2.6 | 0.00 | 0.26 | 0.00 | 73 | 1015.5 |
| 20260906085255 | 64 | 227 | 0.9 | 2.6 | 0.00 | 0.26 | 0.00 | 73 | 1015.6 |
| 20260906085154 | 64 | 237 | 0.9 | 5.2 | 0.00 | 0.26 | 0.00 | 73 | 1015.6 |
| 20260906085052 | 64 | 197 | 0.9 | 5.2 | 0.00 | 0.26 | 0.00 | 74 | 1015.6 |
| 20260906084947 | 64 | 262 | 0.9 | 5.2 | 0.00 | 0.26 | 0.00 | 74 | 1015.6 |
| 20260906084847 | 64 | 261 | 0.9 | 5.2 | 0.00 | 0.26 | 0.00 | 74 | 1015.5 |
| 20260906084746 | 64 | 254 | 0.9 | 5.2 | 0.00 | 0.26 | 0.00 | 74 | 1015.5 |
| 20260906084645 | 63 | 227 | 0.9 | 5.2 | 0.00 | 0.26 | 0.00 | 73 | 1015.5 |
| 20260906084543 | 63 | 268 | 0.9 | 5.2 | 0.00 | 0.26 | 0.00 | 74 | 1015.5 |
| 20260906084442 | 63 | 259 | 0.9 | 5.2 | 0.00 | 0.26 | 0.00 | 74 | 1015.4 |
| 20260906084340 | 63 | 212 | 0.9 | 5.2 | 0.00 | 0.26 | 0.00 | 73 | 1015.4 |
| 20260906084240 | 63 | 247 | 0.9 | 5.2 | 0.00 | 0.26 | 0.00 | 73 | 1015.4 |
| 20260906084138 | 63 | 4 | 0.9 | 3.5 | 0.00 | 0.26 | 0.00 | 74 | 1015.4 |
| 20260906084038 | 63 | 272 | 0.9 | 3.5 | 0.00 | 0.26 | 0.00 | 74 | 1015.3 |
| 20260906083939 | 63 | 249 | 0.9 | 3.5 | 0.00 | 0.26 | 0.00 | 74 | 1015.3 |
| 20260906083840 | 63 | 239 | 0.9 | 3.5 | 0.00 | 0.26 | 0.00 | 74 | 1015.3 |
| 20260906083736 | 63 | 239 | 0.9 | 3.5 | 0.00 | 0.26 | 0.00 | 74 | 1015.3 |
| 20260906083638 | 63 | 225 | 0.9 | 3.5 | 0.00 | 0.26 | 0.00 | 74 | 1015.3 |
| 20260906083535 | 63 | 237 | 0.9 | 3.5 | 0.00 | 0.26 | 0.00 | 74 | 1015.2 |
| 20260906083437 | 63 | 216 | 0.9 | 3.5 | 0.00 | 0.26 | 0.00 | 74 | 1015.2 |
| 20260906083337 | 63 | 192 | 0.9 | 3.5 | 0.00 | 0.26 | 0.00 | 74 | 1015.2 |
| 20260906083237 | 63 | 180 | 0.9 | 2.6 | 0.00 | 0.26 | 0.00 | 74 | 1015.2 |
| 20260906083135 | 63 | 180 | 0.9 | 2.6 | 0.00 | 0.26 | 0.00 | 74 | 1015.1 |
| 20260906083035 | 63 | 180 | 0.9 | 2.6 | 0.00 | 0.26 | 0.00 | 74 | 1015.2 |
| 20260906082934 | 63 | 180 | 0.9 | 2.6 | 0.00 | 0.26 | 0.00 | 74 | 1015.1 |
| 20260906082832 | 63 | 180 | 0.9 | 2.6 | 0.00 | 0.26 | 0.00 | 74 | 1015.2 |
| 20260906082733 | 63 | 180 | 0.9 | 2.6 | 0.00 | 0.26 | 0.00 | 74 | 1015.2 |
| 20260906082632 | 63 | 180 | 0.9 | 2.6 | 0.00 | 0.26 | 0.00 | 74 | 1015.2 |
| 20260906082531 | 63 | 180 | 0.9 | 2.6 | 0.00 | 0.26 | 0.00 | 74 | 1015.2 |
| 20260906082430 | 63 | 265 | 0.9 | 2.6 | 0.00 | 0.26 | 0.00 | 74 | 1015.2 |
| 20260906082326 | 63 | 280 | 0.9 | 2.6 | 0.00 | 0.26 | 0.00 | 74 | 1015.2 |
| 20260906082227 | 63 | 268 | 0.9 | 2.6 | 0.00 | 0.26 | 0.00 | 74 | 1015.2 |
| 20260906082127 | 63 | 180 | 0.9 | 2.6 | 0.00 | 0.26 | 0.00 | 74 | 1015.2 |
| 20260906082026 | 63 | 180 | 0.9 | 3.5 | 0.00 | 0.26 | 0.00 | 75 | 1015.2 |
| 20260906081925 | 63 | 180 | 0.9 | 3.5 | 0.00 | 0.26 | 0.00 | 74 | 1015.2 |
| 20260906081824 | 63 | 180 | 0.9 | 3.5 | 0.00 | 0.26 | 0.00 | 75 | 1015.2 |
| 20260906081721 | 63 | 180 | 0.9 | 3.5 | 0.00 | 0.26 | 0.00 | 74 | 1015.2 |
| 20260906081623 | 63 | 180 | 0.9 | 3.5 | 0.00 | 0.26 | 0.00 | 74 | 1015.2 |
| 20260906081521 | 63 | 180 | 0.9 | 3.5 | 0.00 | 0.26 | 0.00 | 74 | 1015.2 |
| 20260906081420 | 63 | 180 | 0.9 | 3.5 | 0.00 | 0.26 | 0.00 | 74 | 1015.2 |
| 20260906081319 | 63 | 260 | 0.9 | 3.5 | 0.00 | 0.26 | 0.00 | 74 | 1015.1 |
| 20260906081219 | 63 | 180 | 0.9 | 3.5 | 0.00 | 0.26 | 0.00 | 74 | 1015.1 |
| 20260906081113 | 63 | 263 | 0.9 | 2.6 | 0.00 | 0.26 | 0.00 | 74 | 1015.1 |
| 20260906081013 | 63 | 263 | 0.9 | 2.6 | 0.00 | 0.26 | 0.00 | 74 | 1015.1 |
| 20260906080910 | 63 | 180 | 0.9 | 2.6 | 0.00 | 0.26 | 0.00 | 74 | 1015.1 |
| 20260906080810 | 63 | 265 | 0.9 | 2.6 | 0.00 | 0.26 | 0.00 | 74 | 1015.1 |
| 20260906080710 | 63 | 180 | 0.9 | 2.6 | 0.00 | 0.26 | 0.00 | 74 | 1015.1 |
| 20260906080609 | 63 | 180 | 0.9 | 2.6 | 0.00 | 0.26 | 0.00 | 74 | 1015.2 |
| 20260906080502 | 63 | 258 | 0.9 | 2.6 | 0.00 | 0.26 | 0.00 | 74 | 1015.2 |
| 20260906080403 | 63 | 180 | 0.9 | 2.6 | 0.00 | 0.26 | 0.00 | 74 | 1015.2 |
| 20260906080300 | 63 | 180 | 0.9 | 2.6 | 0.00 | 0.26 | 0.00 | 74 | 1015.2 |
| 20260906080201 | 63 | 211 | 0.9 | 2.6 | 0.00 | 0.26 | 0.00 | 74 | 1015.3 |
| 20260906080057 | 63 | 180 | 0.9 | 2.6 | 0.00 | 0.26 | 0.00 | 74 | 1015.2 |
| 20260906075958 | 63 | 180 | 0.9 | 2.6 | 0.00 | 0.26 | 0.00 | 74 | 1015.2 |
| 20260906075858 | 63 | 180 | 0.9 | 2.6 | 0.00 | 0.26 | 0.00 | 74 | 1015.2 |
| 20260906075757 | 63 | 180 | 0.9 | 2.6 | 0.00 | 0.26 | 0.00 | 74 | 1015.2 |
| 20260906075655 | 63 | 180 | 0.9 | 2.6 | 0.00 | 0.26 | 0.00 | 74 | 1015.2 |
| 20260906075554 | 63 | 180 | 0.9 | 2.6 | 0.00 | 0.26 | 0.00 | 74 | 1015.2 |
| 20260906075448 | 63 | 244 | 0.9 | 2.6 | 0.00 | 0.26 | 0.00 | 75 | 1015.2 |
| 20260906075348 | 63 | 180 | 0.9 | 2.6 | 0.00 | 0.26 | 0.00 | 75 | 1015.2 |
| 20260906075246 | 63 | 180 | 0.9 | 2.6 | 0.00 | 0.26 | 0.00 | 75 | 1015.2 |
| 20260906075146 | 63 | 180 | 0.9 | 4.3 | 0.00 | 0.26 | 0.00 | 75 | 1015.2 |
| 20260906075045 | 63 | 180 | 0.9 | 4.3 | 0.00 | 0.26 | 0.00 | 75 | 1015.2 |
| 20260906074945 | 63 | 180 | 0.9 | 4.3 | 0.00 | 0.26 | 0.00 | 75 | 1015.1 |
| 20260906074845 | 63 | 180 | 0.9 | 4.3 | 0.00 | 0.26 | 0.00 | 75 | 1015.1 |
| 20260906074747 | 63 | 180 | 1.7 | 4.3 | 0.00 | 0.26 | 0.00 | 75 | 1015.1 |
| 20260906074646 | 63 | 266 | 0.9 | 4.3 | 0.00 | 0.26 | 0.00 | 75 | 1015.1 |
| 20260906074542 | 63 | 180 | 0.9 | 4.3 | 0.00 | 0.26 | 0.00 | 75 | 1015.1 |
| 20260906074443 | 63 | 180 | 0.9 | 4.3 | 0.00 | 0.26 | 0.00 | 75 | 1015.1 |
| 20260906074341 | 63 | 278 | 0.9 | 4.3 | 0.00 | 0.26 | 0.00 | 75 | 1015.1 |
| 20260906074241 | 63 | 180 | 0.9 | 4.3 | 0.00 | 0.26 | 0.00 | 75 | 1015.1 |
| 20260906074144 | 63 | 180 | 0.9 | 2.6 | 0.00 | 0.26 | 0.00 | 75 | 1015.1 |
| 20260906074044 | 64 | 262 | 0.9 | 2.6 | 0.00 | 0.26 | 0.00 | 75 | 1015.1 |
| 20260906073941 | 64 | 258 | 0.9 | 2.6 | 0.00 | 0.26 | 0.00 | 75 | 1015.1 |
| 20260906073841 | 64 | 180 | 0.9 | 2.6 | 0.00 | 0.26 | 0.00 | 75 | 1015.1 |
| 20260906073740 | 64 | 264 | 0.9 | 2.6 | 0.00 | 0.26 | 0.00 | 75 | 1015.1 |
| 20260906073638 | 64 | 180 | 0.9 | 2.6 | 0.00 | 0.26 | 0.00 | 76 | 1015.2 |
| 20260906073539 | 64 | 264 | 0.9 | 2.6 | 0.00 | 0.26 | 0.00 | 76 | 1015.2 |
| 20260906073435 | 64 | 180 | 0.9 | 2.6 | 0.00 | 0.26 | 0.00 | 76 | 1015.2 |
| 20260906073338 | 64 | 180 | 0.9 | 2.6 | 0.00 | 0.26 | 0.00 | 76 | 1015.1 |
| 20260906073232 | 64 | 180 | 0.9 | 2.6 | 0.00 | 0.26 | 0.00 | 76 | 1015.1 |
| 20260906073131 | 64 | 180 | 0.9 | 2.6 | 0.00 | 0.26 | 0.00 | 76 | 1015.1 |
| 20260906073029 | 64 | 270 | 0.9 | 2.6 | 0.00 | 0.26 | 0.00 | 76 | 1015.1 |
| 20260906072928 | 64 | 264 | 0.9 | 2.6 | 0.00 | 0.26 | 0.00 | 76 | 1015.2 |
| 20260906072825 | 64 | 180 | 0.9 | 2.6 | 0.00 | 0.26 | 0.00 | 76 | 1015.1 |
| 20260906072726 | 64 | 180 | 0.9 | 6.1 | 0.00 | 0.26 | 0.00 | 76 | 1015.2 |
| 20260906072624 | 64 | 257 | 0.9 | 6.1 | 0.00 | 0.26 | 0.00 | 76 | 1015.1 |
| 20260906072525 | 64 | 180 | 0.9 | 6.1 | 0.00 | 0.26 | 0.00 | 76 | 1015.2 |
| 20260906072425 | 64 | 180 | 0.9 | 6.1 | 0.00 | 0.26 | 0.00 | 76 | 1015.2 |
| 20260906072325 | 64 | 252 | 0.9 | 6.1 | 0.00 | 0.26 | 0.00 | 76 | 1015.2 |
| 20260906072223 | 64 | 309 | 0.9 | 6.1 | 0.00 | 0.26 | 0.00 | 76 | 1015.3 |
| 20260906072124 | 64 | 274 | 0.9 | 6.1 | 0.00 | 0.26 | 0.00 | 76 | 1015.3 |
| 20260906072022 | 64 | 273 | 0.9 | 6.1 | 0.00 | 0.26 | 0.00 | 76 | 1015.2 |
| 20260906071922 | 64 | 253 | 0.9 | 6.1 | 0.00 | 0.26 | 0.00 | 76 | 1015.2 |
| 20260906071821 | 64 | 246 | 0.9 | 6.1 | 0.00 | 0.26 | 0.00 | 76 | 1015.3 |
| 20260906071722 | 64 | 287 | 0.9 | 4.3 | 0.00 | 0.26 | 0.00 | 76 | 1015.3 |
| 20260906071623 | 64 | 262 | 0.9 | 4.3 | 0.00 | 0.26 | 0.00 | 76 | 1015.3 |
| 20260906071522 | 64 | 291 | 0.9 | 4.3 | 0.00 | 0.26 | 0.00 | 76 | 1015.3 |
| 20260906071423 | 64 | 268 | 0.9 | 2.6 | 0.00 | 0.26 | 0.00 | 76 | 1015.2 |
| 20260906071322 | 64 | 259 | 0.9 | 2.6 | 0.00 | 0.26 | 0.00 | 75 | 1015.2 |
| 20260906071222 | 64 | 305 | 0.9 | 2.6 | 0.00 | 0.26 | 0.00 | 75 | 1015.2 |
| 20260906071121 | 64 | 297 | 0.9 | 2.6 | 0.00 | 0.26 | 0.00 | 75 | 1015.2 |
| 20260906071024 | 64 | 272 | 0.9 | 3.5 | 0.00 | 0.26 | 0.00 | 75 | 1015.2 |
| 20260906070923 | 64 | 256 | 0.9 | 3.5 | 0.00 | 0.26 | 0.00 | 75 | 1015.2 |
| 20260906070819 | 64 | 270 | 1.7 | 3.5 | 0.00 | 0.26 | 0.00 | 75 | 1015.3 |
| 20260906070719 | 64 | 180 | 1.7 | 4.3 | 0.00 | 0.26 | 0.00 | 75 | 1015.3 |
| 20260906070619 | 64 | 180 | 1.7 | 4.3 | 0.00 | 0.26 | 0.00 | 75 | 1015.3 |
| 20260906070521 | 64 | 180 | 0.9 | 4.3 | 0.00 | 0.26 | 0.00 | 75 | 1015.3 |
| 20260906070413 | 64 | 180 | 1.7 | 4.3 | 0.00 | 0.26 | 0.00 | 76 | 1015.3 |
| 20260906070314 | 64 | 180 | 1.7 | 4.3 | 0.00 | 0.26 | 0.00 | 76 | 1015.3 |
| 20260906070213 | 64 | 180 | 1.7 | 4.3 | 0.00 | 0.26 | 0.00 | 76 | 1015.2 |
| 20260906070113 | 64 | 180 | 0.9 | 4.3 | 0.00 | 0.26 | 0.00 | 75 | 1015.3 |
| 20260906070011 | 64 | 180 | 0.9 | 6.1 | 0.00 | 0.26 | 0.00 | 75 | 1015.2 |
| 20260906065911 | 64 | 180 | 0.9 | 6.1 | 0.00 | 0.26 | 0.00 | 75 | 1015.2 |
| 20260906065809 | 64 | 180 | 0.9 | 6.1 | 0.00 | 0.26 | 0.00 | 75 | 1015.2 |
| 20260906065709 | 64 | 180 | 1.7 | 6.1 | 0.00 | 0.26 | 0.00 | 75 | 1015.2 |
| 20260906065602 | 64 | 180 | 1.7 | 6.1 | 0.00 | 0.26 | 0.00 | 75 | 1015.2 |
| 20260906065501 | 64 | 180 | 1.7 | 6.1 | 0.00 | 0.26 | 0.00 | 75 | 1015.2 |
| 20260906065401 | 64 | 278 | 1.7 | 6.1 | 0.00 | 0.26 | 0.00 | 75 | 1015.1 |
| 20260906065301 | 64 | 248 | 1.7 | 6.1 | 0.00 | 0.26 | 0.00 | 75 | 1015.1 |
| 20260906065157 | 64 | 276 | 1.7 | 6.1 | 0.00 | 0.26 | 0.00 | 75 | 1015.1 |
| 20260906065058 | 64 | 256 | 1.7 | 6.1 | 0.00 | 0.26 | 0.00 | 75 | 1015.1 |
| 20260906064957 | 64 | 255 | 1.7 | 4.3 | 0.00 | 0.26 | 0.00 | 74 | 1015.1 |
| 20260906064857 | 64 | 264 | 1.7 | 4.3 | 0.00 | 0.26 | 0.00 | 75 | 1015.1 |
| 20260906064752 | 64 | 278 | 1.7 | 4.3 | 0.00 | 0.26 | 0.00 | 75 | 1015.1 |
| 20260906064650 | 64 | 266 | 1.7 | 4.3 | 0.00 | 0.26 | 0.00 | 74 | 1015.1 |
| 20260906064549 | 64 | 268 | 1.7 | 4.3 | 0.00 | 0.26 | 0.00 | 74 | 1015.1 |
| 20260906064448 | 65 | 180 | 1.7 | 4.3 | 0.00 | 0.26 | 0.00 | 74 | 1015.1 |
| 20260906064346 | 65 | 254 | 1.7 | 4.3 | 0.00 | 0.26 | 0.00 | 74 | 1015.1 |
| 20260906064247 | 65 | 180 | 1.7 | 4.3 | 0.00 | 0.26 | 0.00 | 74 | 1015.1 |
| 20260906064145 | 65 | 255 | 1.7 | 4.3 | 0.00 | 0.26 | 0.00 | 74 | 1015.1 |
| 20260906064046 | 65 | 268 | 1.7 | 4.3 | 0.00 | 0.26 | 0.00 | 74 | 1015.0 |
| 20260906063946 | 65 | 180 | 1.7 | 4.3 | 0.00 | 0.26 | 0.00 | 74 | 1015.0 |
| 20260906063846 | 65 | 272 | 1.7 | 4.3 | 0.00 | 0.26 | 0.00 | 74 | 1015.0 |
| 20260906063743 | 65 | 263 | 1.7 | 4.3 | 0.00 | 0.26 | 0.00 | 74 | 1015.0 |
| 20260906063642 | 65 | 180 | 1.7 | 4.3 | 0.00 | 0.26 | 0.00 | 73 | 1015.0 |
| 20260906063542 | 65 | 274 | 1.7 | 4.3 | 0.00 | 0.26 | 0.00 | 73 | 1015.0 |
| 20260906063441 | 65 | 268 | 1.7 | 4.3 | 0.00 | 0.26 | 0.00 | 73 | 1015.1 |
| 20260906063339 | 65 | 243 | 1.7 | 4.3 | 0.00 | 0.26 | 0.00 | 73 | 1015.0 |
| 20260906063239 | 65 | 263 | 1.7 | 4.3 | 0.00 | 0.26 | 0.00 | 73 | 1015.1 |
| 20260906063138 | 65 | 263 | 1.7 | 4.3 | 0.00 | 0.26 | 0.00 | 73 | 1015.1 |
| 20260906063039 | 65 | 263 | 0.9 | 4.3 | 0.00 | 0.26 | 0.00 | 73 | 1015.1 |
| 20260906062937 | 65 | 256 | 0.9 | 3.5 | 0.00 | 0.26 | 0.00 | 73 | 1015.1 |
| 20260906062838 | 65 | 180 | 0.9 | 3.5 | 0.00 | 0.26 | 0.00 | 73 | 1015.1 |
| 20260906062733 | 65 | 180 | 0.9 | 3.5 | 0.00 | 0.26 | 0.00 | 73 | 1015.1 |
| 20260906062636 | 65 | 180 | 0.9 | 3.5 | 0.00 | 0.26 | 0.00 | 73 | 1015.1 |
| 20260906062535 | 65 | 180 | 0.9 | 3.5 | 0.00 | 0.26 | 0.00 | 73 | 1015.1 |
| 20260906062432 | 65 | 180 | 0.9 | 2.6 | 0.00 | 0.26 | 0.00 | 73 | 1015.1 |
| 20260906062332 | 65 | 180 | 0.9 | 2.6 | 0.00 | 0.26 | 0.00 | 73 | 1015.2 |
| 20260906062232 | 65 | 274 | 0.9 | 2.6 | 0.00 | 0.26 | 0.00 | 73 | 1015.2 |
| 20260906062132 | 65 | 180 | 0.9 | 2.6 | 0.00 | 0.26 | 0.00 | 73 | 1015.2 |
| 20260906062026 | 65 | 180 | 0.9 | 2.6 | 0.00 | 0.26 | 0.00 | 73 | 1015.3 |
| 20260906061928 | 65 | 180 | 0.9 | 2.6 | 0.00 | 0.26 | 0.00 | 73 | 1015.2 |
| 20260906061821 | 65 | 180 | 0.9 | 3.5 | 0.00 | 0.26 | 0.00 | 73 | 1015.3 |
| 20260906061722 | 65 | 180 | 0.9 | 3.5 | 0.00 | 0.26 | 0.00 | 73 | 1015.3 |
| 20260906061622 | 65 | 270 | 0.9 | 3.5 | 0.00 | 0.26 | 0.00 | 73 | 1015.3 |
| 20260906061522 | 65 | 180 | 0.9 | 3.5 | 0.00 | 0.26 | 0.00 | 73 | 1015.3 |
| 20260906061418 | 65 | 180 | 0.9 | 3.5 | 0.00 | 0.26 | 0.00 | 73 | 1015.3 |
| 20260906061319 | 66 | 180 | 0.9 | 3.5 | 0.00 | 0.26 | 0.00 | 73 | 1015.3 |
| 20260906061216 | 66 | 180 | 0.9 | 3.5 | 0.00 | 0.26 | 0.00 | 73 | 1015.3 |
| 20260906061117 | 66 | 180 | 0.9 | 3.5 | 0.00 | 0.26 | 0.00 | 73 | 1015.3 |
| 20260906061011 | 66 | 180 | 0.9 | 3.5 | 0.00 | 0.26 | 0.00 | 73 | 1015.3 |
| 20260906060910 | 66 | 180 | 1.7 | 5.2 | 0.00 | 0.26 | 0.00 | 73 | 1015.3 |
| 20260906060809 | 66 | 180 | 1.7 | 5.2 | 0.00 | 0.26 | 0.00 | 73 | 1015.3 |
| 20260906060708 | 66 | 180 | 1.7 | 5.2 | 0.00 | 0.26 | 0.00 | 73 | 1015.3 |
| 20260906060603 | 66 | 180 | 1.7 | 5.2 | 0.00 | 0.26 | 0.00 | 73 | 1015.2 |
| 20260906060505 | 66 | 180 | 1.7 | 5.2 | 0.00 | 0.26 | 0.00 | 73 | 1015.2 |
| 20260906060404 | 66 | 180 | 1.7 | 5.2 | 0.00 | 0.26 | 0.00 | 73 | 1015.2 |
| 20260906060304 | 66 | 180 | 1.7 | 5.2 | 0.00 | 0.26 | 0.00 | 73 | 1015.2 |
| 20260906060158 | 66 | 256 | 1.7 | 5.2 | 0.00 | 0.26 | 0.00 | 73 | 1015.2 |
| 20260906060058 | 66 | 256 | 1.7 | 5.2 | 0.00 | 0.26 | 0.00 | 73 | 1015.2 |
| 20260906055956 | 66 | 274 | 1.7 | 5.2 | 0.00 | 0.26 | 0.00 | 73 | 1015.1 |
| 20260906055856 | 66 | 266 | 1.7 | 4.3 | 0.00 | 0.26 | 0.00 | 73 | 1015.1 |
| 20260906055754 | 66 | 297 | 1.7 | 4.3 | 0.00 | 0.26 | 0.00 | 73 | 1015.1 |
| 20260906055654 | 66 | 285 | 1.7 | 4.3 | 0.00 | 0.26 | 0.00 | 73 | 1015.1 |
| 20260906055547 | 66 | 249 | 0.9 | 4.3 | 0.00 | 0.26 | 0.00 | 73 | 1015.2 |
| 20260906055448 | 66 | 285 | 0.9 | 4.3 | 0.00 | 0.26 | 0.00 | 73 | 1015.1 |
| 20260906055348 | 66 | 256 | 1.7 | 3.5 | 0.00 | 0.26 | 0.00 | 73 | 1015.1 |
| 20260906055244 | 66 | 269 | 1.7 | 3.5 | 0.00 | 0.26 | 0.00 | 73 | 1015.1 |
| 20260906055145 | 66 | 254 | 1.7 | 2.6 | 0.00 | 0.26 | 0.00 | 73 | 1015.1 |
| 20260906055046 | 66 | 266 | 1.7 | 4.3 | 0.00 | 0.26 | 0.00 | 73 | 1015.1 |
| 20260906054948 | 66 | 285 | 0.9 | 4.3 | 0.00 | 0.26 | 0.00 | 73 | 1015.1 |
| 20260906054843 | 66 | 255 | 0.9 | 4.3 | 0.00 | 0.26 | 0.00 | 73 | 1015.1 |
| 20260906054747 | 66 | 262 | 0.9 | 4.3 | 0.00 | 0.26 | 0.00 | 73 | 1015.1 |
| 20260906054642 | 66 | 264 | 0.9 | 4.3 | 0.00 | 0.26 | 0.00 | 73 | 1015.1 |
| 20260906054541 | 66 | 260 | 0.9 | 4.3 | 0.00 | 0.26 | 0.00 | 73 | 1015.0 |
| 20260906054443 | 67 | 278 | 0.9 | 4.3 | 0.00 | 0.26 | 0.00 | 73 | 1015.1 |
| 20260906054337 | 67 | 281 | 0.9 | 4.3 | 0.00 | 0.26 | 0.00 | 73 | 1015.1 |
| 20260906054237 | 67 | 264 | 0.9 | 4.3 | 0.00 | 0.26 | 0.00 | 73 | 1015.1 |
| 20260906054135 | 67 | 258 | 0.9 | 4.3 | 0.00 | 0.26 | 0.00 | 73 | 1015.1 |
| 20260906054036 | 67 | 254 | 0.9 | 2.6 | 0.00 | 0.26 | 0.00 | 73 | 1015.1 |
| 20260906053935 | 67 | 255 | 0.9 | 2.6 | 0.00 | 0.26 | 0.00 | 73 | 1015.0 |
| 20260906053836 | 67 | 254 | 0.9 | 2.6 | 0.00 | 0.26 | 0.00 | 73 | 1015.0 |
| 20260906053733 | 67 | 241 | 0.9 | 2.6 | 0.00 | 0.26 | 0.00 | 73 | 1015.0 |
| 20260906053634 | 67 | 256 | 0.9 | 2.6 | 0.00 | 0.26 | 0.00 | 73 | 1015.0 |
| 20260906053531 | 67 | 256 | 0.9 | 2.6 | 0.00 | 0.26 | 0.00 | 73 | 1014.9 |
| 20260906053434 | 67 | 259 | 0.9 | 2.6 | 0.00 | 0.26 | 0.00 | 73 | 1015.0 |
| 20260906053327 | 67 | 261 | 0.9 | 2.6 | 0.00 | 0.26 | 0.00 | 73 | 1014.9 |
| 20260906053226 | 67 | 266 | 0.9 | 2.6 | 0.00 | 0.26 | 0.00 | 73 | 1014.9 |
| 20260906053124 | 67 | 271 | 0.9 | 2.6 | 0.00 | 0.26 | 0.00 | 72 | 1014.9 |
| 20260906053024 | 67 | 262 | 0.9 | 2.6 | 0.00 | 0.26 | 0.00 | 73 | 1014.9 |
| 20260906052922 | 67 | 250 | 0.9 | 2.6 | 0.00 | 0.26 | 0.00 | 73 | 1014.9 |
| 20260906052823 | 67 | 290 | 0.9 | 2.6 | 0.00 | 0.26 | 0.00 | 73 | 1014.8 |
| 20260906052720 | 67 | 255 | 0.9 | 2.6 | 0.00 | 0.26 | 0.00 | 73 | 1014.8 |
| 20260906052621 | 67 | 132 | 0.9 | 2.6 | 0.00 | 0.26 | 0.00 | 73 | 1014.8 |
| 20260906052521 | 67 | 267 | 0.9 | 4.3 | 0.00 | 0.26 | 0.00 | 73 | 1014.9 |
| 20260906052421 | 67 | 253 | 0.9 | 5.2 | 0.00 | 0.26 | 0.00 | 72 | 1014.9 |
| 20260906052321 | 67 | 270 | 0.9 | 5.2 | 0.00 | 0.26 | 0.00 | 72 | 1014.8 |
| 20260906052221 | 67 | 285 | 0.9 | 5.2 | 0.00 | 0.26 | 0.00 | 72 | 1014.8 |
| 20260906052120 | 67 | 245 | 0.9 | 6.1 | 0.00 | 0.26 | 0.00 | 72 | 1014.9 |
| 20260906052021 | 67 | 271 | 0.9 | 6.1 | 0.00 | 0.26 | 0.00 | 72 | 1014.9 |
| 20260906051919 | 67 | 249 | 0.9 | 6.1 | 0.00 | 0.26 | 0.00 | 72 | 1014.9 |
| 20260906051820 | 67 | 274 | 0.9 | 6.1 | 0.00 | 0.26 | 0.00 | 72 | 1014.8 |
| 20260906051722 | 67 | 251 | 0.9 | 6.1 | 0.00 | 0.26 | 0.00 | 72 | 1014.9 |
| 20260906051622 | 67 | 254 | 0.9 | 6.1 | 0.00 | 0.26 | 0.00 | 72 | 1014.9 |
| 20260906051519 | 67 | 260 | 0.9 | 6.1 | 0.00 | 0.26 | 0.00 | 72 | 1014.9 |
| 20260906051420 | 67 | 289 | 0.9 | 6.1 | 0.00 | 0.26 | 0.00 | 72 | 1014.8 |
| 20260906051321 | 67 | 229 | 0.9 | 6.1 | 0.00 | 0.26 | 0.00 | 72 | 1014.9 |
| 20260906051217 | 68 | 256 | 0.9 | 6.1 | 0.00 | 0.26 | 0.00 | 72 | 1014.9 |
| 20260906051119 | 68 | 180 | 0.0 | 2.6 | 0.00 | 0.26 | 0.00 | 73 | 1014.8 |
| 20260906051014 | 68 | 251 | 0.9 | 2.6 | 0.00 | 0.26 | 0.00 | 73 | 1014.9 |
| 20260906050913 | 68 | 251 | 0.9 | 2.6 | 0.00 | 0.26 | 0.00 | 73 | 1014.9 |
| 20260906050809 | 68 | 251 | 0.9 | 2.6 | 0.00 | 0.26 | 0.00 | 73 | 1014.9 |
| 20260906050710 | 68 | 251 | 0.9 | 2.6 | 0.00 | 0.26 | 0.00 | 73 | 1014.8 |
| 20260906050607 | 68 | 251 | 0.9 | 2.6 | 0.00 | 0.26 | 0.00 | 74 | 1014.8 |
| 20260906050509 | 68 | 276 | 0.9 | 2.6 | 0.00 | 0.26 | 0.00 | 74 | 1014.7 |
| 20260906050402 | 68 | 268 | 0.9 | 4.3 | 0.00 | 0.26 | 0.00 | 74 | 1014.7 |
| 20260906050301 | 68 | 260 | 0.9 | 4.3 | 0.00 | 0.26 | 0.00 | 74 | 1014.7 |
| 20260906050202 | 68 | 260 | 0.9 | 4.3 | 0.00 | 0.26 | 0.00 | 74 | 1014.7 |
| 20260906045958 | 68 | 274 | 1.7 | 4.3 | 0.00 | 0.26 | 0.00 | 74 | 1014.7 |
| 20260906045858 | 68 | 258 | 1.7 | 4.3 | 0.00 | 0.26 | 0.00 | 75 | 1014.7 |
| 20260906045755 | 68 | 348 | 1.7 | 4.3 | 0.00 | 0.26 | 0.00 | 75 | 1014.7 |
| 20260906045702 | 68 | 247 | 1.7 | 6.1 | 0.00 | 0.26 | 0.00 | 75 | 1014.6 |
| 20260906045553 | 68 | 267 | 1.7 | 6.1 | 0.00 | 0.26 | 0.00 | 75 | 1014.7 |
| 20260906045454 | 68 | 254 | 1.7 | 6.1 | 0.00 | 0.26 | 0.00 | 75 | 1014.6 |
| 20260906045348 | 68 | 190 | 1.7 | 6.1 | 0.00 | 0.26 | 0.00 | 75 | 1014.7 |
| 20260906045249 | 68 | 287 | 2.6 | 7.0 | 0.00 | 0.26 | 0.00 | 75 | 1014.6 |
| 20260906045147 | 68 | 241 | 2.6 | 7.0 | 0.00 | 0.26 | 0.00 | 75 | 1014.6 |
| 20260906045048 | 68 | 261 | 2.6 | 7.0 | 0.00 | 0.26 | 0.00 | 75 | 1014.7 |
| 20260906044943 | 68 | 245 | 2.6 | 7.0 | 0.00 | 0.26 | 0.00 | 75 | 1014.6 |
| 20260906044846 | 68 | 259 | 2.6 | 7.0 | 0.00 | 0.26 | 0.00 | 75 | 1014.7 |
| 20260906044742 | 68 | 251 | 1.7 | 7.0 | 0.00 | 0.26 | 0.00 | 75 | 1014.7 |
| 20260906044643 | 69 | 230 | 2.6 | 7.0 | 0.00 | 0.26 | 0.00 | 75 | 1014.6 |
| 20260906044537 | 69 | 220 | 1.7 | 7.0 | 0.00 | 0.26 | 0.00 | 75 | 1014.6 |
| 20260906044436 | 69 | 242 | 1.7 | 7.0 | 0.00 | 0.26 | 0.00 | 74 | 1014.6 |
| 20260906044340 | 69 | 268 | 1.7 | 7.0 | 0.00 | 0.26 | 0.00 | 74 | 1014.6 |
| 20260906044235 | 69 | 180 | 1.7 | 5.2 | 0.00 | 0.26 | 0.00 | 73 | 1014.6 |
| 20260906044130 | 69 | 180 | 1.7 | 5.2 | 0.00 | 0.26 | 0.00 | 73 | 1014.6 |
| 20260906044036 | 69 | 180 | 1.7 | 5.2 | 0.00 | 0.26 | 0.00 | 72 | 1014.5 |
| 20260906043928 | 69 | 212 | 1.7 | 5.2 | 0.00 | 0.26 | 0.00 | 72 | 1014.6 |
| 20260906043828 | 69 | 180 | 1.7 | 5.2 | 0.00 | 0.26 | 0.00 | 72 | 1014.6 |
| 20260906043722 | 69 | 180 | 1.7 | 5.2 | 0.00 | 0.26 | 0.00 | 72 | 1014.6 |
| 20260906043622 | 69 | 180 | 1.7 | 5.2 | 0.00 | 0.26 | 0.00 | 72 | 1014.5 |
| 20260906043516 | 69 | 180 | 1.7 | 5.2 | 0.00 | 0.26 | 0.00 | 72 | 1014.5 |
| 20260906043417 | 69 | 180 | 1.7 | 5.2 | 0.00 | 0.26 | 0.00 | 72 | 1014.4 |
| 20260906043313 | 69 | 180 | 1.7 | 6.1 | 0.00 | 0.26 | 0.00 | 72 | 1014.4 |
| 20260906043215 | 70 | 274 | 1.7 | 6.1 | 0.00 | 0.26 | 0.00 | 72 | 1014.4 |
| 20260906043111 | 70 | 260 | 1.7 | 6.1 | 0.00 | 0.26 | 0.00 | 72 | 1014.4 |
| 20260906043012 | 70 | 252 | 1.7 | 6.1 | 0.00 | 0.26 | 0.00 | 72 | 1014.4 |
| 20260906042910 | 70 | 263 | 1.7 | 6.1 | 0.00 | 0.26 | 0.00 | 71 | 1014.4 |
| 20260906042811 | 70 | 260 | 1.7 | 6.1 | 0.00 | 0.26 | 0.00 | 71 | 1014.4 |
| 20260906042705 | 70 | 271 | 1.7 | 6.1 | 0.00 | 0.26 | 0.00 | 71 | 1014.4 |
| 20260906042604 | 70 | 241 | 1.7 | 6.1 | 0.00 | 0.26 | 0.00 | 71 | 1014.4 |
| 20260906042503 | 70 | 282 | 1.7 | 6.1 | 0.00 | 0.26 | 0.00 | 71 | 1014.4 |
| 20260906042403 | 70 | 268 | 1.7 | 4.3 | 0.00 | 0.26 | 0.00 | 70 | 1014.4 |
| 20260906042301 | 70 | 189 | 1.7 | 5.2 | 0.00 | 0.26 | 0.00 | 70 | 1014.4 |
| 20260906042202 | 70 | 270 | 1.7 | 5.2 | 0.00 | 0.26 | 0.00 | 70 | 1014.4 |
| 20260906042056 | 70 | 158 | 1.7 | 5.2 | 0.00 | 0.26 | 0.00 | 69 | 1014.3 |
| 20260906041958 | 71 | 267 | 1.7 | 5.2 | 0.00 | 0.26 | 0.00 | 69 | 1014.3 |
| 20260906041852 | 71 | 264 | 1.7 | 5.2 | 0.00 | 0.26 | 0.00 | 68 | 1014.3 |
| 20260906041751 | 71 | 347 | 1.7 | 5.2 | 0.00 | 0.26 | 0.00 | 68 | 1014.4 |
| 20260906041651 | 71 | 312 | 1.7 | 5.2 | 0.00 | 0.26 | 0.00 | 68 | 1014.4 |
| 20260906041551 | 71 | 240 | 1.7 | 5.2 | 0.00 | 0.26 | 0.00 | 67 | 1014.4 |
| 20260906041446 | 71 | 164 | 1.7 | 5.2 | 0.00 | 0.26 | 0.00 | 67 | 1014.4 |
| 20260906041345 | 71 | 285 | 1.7 | 5.2 | 0.00 | 0.26 | 0.00 | 67 | 1014.4 |
| 20260906041246 | 71 | 214 | 1.7 | 4.3 | 0.00 | 0.26 | 0.00 | 67 | 1014.4 |
| 20260906041147 | 71 | 180 | 1.7 | 4.3 | 0.00 | 0.26 | 0.00 | 67 | 1014.4 |
| 20260906041041 | 71 | 233 | 0.9 | 4.3 | 0.00 | 0.26 | 0.00 | 66 | 1014.4 |
| 20260906040942 | 71 | 274 | 0.9 | 4.3 | 0.00 | 0.26 | 0.00 | 66 | 1014.5 |
| 20260906040838 | 71 | 237 | 0.9 | 4.3 | 0.00 | 0.26 | 0.00 | 66 | 1014.4 |
| 20260906040739 | 71 | 258 | 1.7 | 5.2 | 0.00 | 0.26 | 0.00 | 66 | 1014.5 |
| 20260906040636 | 71 | 211 | 1.7 | 5.2 | 0.00 | 0.26 | 0.00 | 65 | 1014.4 |
| 20260906040536 | 71 | 193 | 1.7 | 5.2 | 0.00 | 0.26 | 0.00 | 65 | 1014.4 |
| 20260906040438 | 71 | 195 | 1.7 | 5.2 | 0.00 | 0.26 | 0.00 | 65 | 1014.4 |
| 20260906040335 | 71 | 264 | 1.7 | 5.2 | 0.00 | 0.26 | 0.00 | 65 | 1014.4 |
| 20260906040238 | 72 | 229 | 1.7 | 5.2 | 0.00 | 0.26 | 0.00 | 65 | 1014.4 |
| 20260906040134 | 72 | 255 | 1.7 | 5.2 | 0.00 | 0.26 | 0.00 | 65 | 1014.4 |
| 20260906040034 | 72 | 255 | 1.7 | 5.2 | 0.00 | 0.26 | 0.00 | 65 | 1014.4 |
| 20260906035936 | 72 | 266 | 1.7 | 5.2 | 0.00 | 0.26 | 0.26 | 65 | 1014.4 |
| 20260906035834 | 72 | 251 | 1.7 | 5.2 | 0.00 | 0.26 | 0.26 | 65 | 1014.4 |
| 20260906035733 | 72 | 266 | 0.9 | 5.2 | 0.00 | 0.26 | 0.26 | 65 | 1014.4 |
| 20260906035632 | 72 | 254 | 0.9 | 5.2 | 0.00 | 0.26 | 0.26 | 65 | 1014.4 |
| 20260906035532 | 72 | 251 | 0.9 | 5.2 | 0.00 | 0.26 | 0.26 | 65 | 1014.4 |
| 20260906035434 | 72 | 261 | 0.9 | 5.2 | 0.00 | 0.26 | 0.26 | 65 | 1014.4 |
| 20260906035331 | 72 | 189 | 0.9 | 5.2 | 0.00 | 0.26 | 0.26 | 65 | 1014.4 |
| 20260906035233 | 72 | 296 | 0.9 | 5.2 | 0.00 | 0.26 | 0.26 | 65 | 1014.4 |
| 20260906035134 | 72 | 306 | 0.9 | 5.2 | 0.00 | 0.26 | 0.26 | 65 | 1014.4 |
| 20260906035031 | 72 | 198 | 0.9 | 5.2 | 0.00 | 0.26 | 0.26 | 65 | 1014.4 |
| 20260906034932 | 72 | 246 | 0.9 | 4.3 | 0.00 | 0.26 | 0.26 | 65 | 1014.4 |
| 20260906034832 | 72 | 355 | 0.9 | 4.3 | 0.00 | 0.26 | 0.26 | 65 | 1014.4 |
| 20260906034734 | 72 | 357 | 0.9 | 4.3 | 0.00 | 0.26 | 0.26 | 65 | 1014.4 |
| 20260906034634 | 72 | 249 | 1.7 | 4.3 | 0.00 | 0.26 | 0.26 | 65 | 1014.4 |
| 20260906034530 | 72 | 232 | 1.7 | 4.3 | 0.00 | 0.26 | 0.26 | 65 | 1014.3 |
| 20260906034430 | 72 | 218 | 1.7 | 4.3 | 0.00 | 0.26 | 0.26 | 65 | 1014.3 |
| 20260906034329 | 72 | 270 | 1.7 | 4.3 | 0.00 | 0.26 | 0.26 | 65 | 1014.3 |
| 20260906034234 | 72 | 249 | 1.7 | 4.3 | 0.00 | 0.26 | 0.26 | 65 | 1014.4 |
| 20260906034127 | 72 | 245 | 0.9 | 4.3 | 0.00 | 0.26 | 0.26 | 65 | 1014.3 |
| 20260906034025 | 72 | 237 | 0.9 | 4.3 | 0.00 | 0.26 | 0.26 | 65 | 1014.3 |
| 20260906033928 | 72 | 191 | 0.9 | 4.3 | 0.00 | 0.26 | 0.26 | 65 | 1014.3 |
| 20260906033827 | 72 | 254 | 0.9 | 4.3 | 0.00 | 0.26 | 0.26 | 65 | 1014.3 |
| 20260906033727 | 72 | 247 | 0.9 | 4.3 | 0.00 | 0.26 | 0.26 | 65 | 1014.2 |
| 20260906033624 | 72 | 272 | 0.9 | 6.1 | 0.00 | 0.26 | 0.26 | 65 | 1014.2 |
| 20260906033521 | 72 | 283 | 0.9 | 6.1 | 0.00 | 0.26 | 0.26 | 65 | 1014.2 |
| 20260906033423 | 72 | 241 | 0.9 | 6.1 | 0.00 | 0.26 | 0.26 | 65 | 1014.2 |
| 20260906033322 | 72 | 254 | 0.9 | 6.1 | 0.00 | 0.26 | 0.26 | 65 | 1014.2 |
| 20260906033217 | 72 | 247 | 1.7 | 6.1 | 0.00 | 0.26 | 0.26 | 65 | 1014.2 |
| 20260906033116 | 72 | 247 | 1.7 | 6.1 | 0.00 | 0.26 | 0.26 | 65 | 1014.2 |
| 20260906033015 | 72 | 272 | 1.7 | 6.1 | 0.00 | 0.26 | 0.26 | 65 | 1014.2 |
| 20260906032915 | 72 | 296 | 1.7 | 6.1 | 0.00 | 0.26 | 0.26 | 65 | 1014.1 |
| 20260906032819 | 72 | 294 | 1.7 | 6.1 | 0.00 | 0.26 | 0.26 | 65 | 1014.1 |
| 20260906032713 | 72 | 251 | 1.7 | 6.1 | 0.00 | 0.26 | 0.26 | 65 | 1014.2 |
| 20260906032610 | 72 | 277 | 1.7 | 4.3 | 0.00 | 0.26 | 0.26 | 65 | 1014.2 |
| 20260906032511 | 72 | 189 | 1.7 | 4.3 | 0.00 | 0.26 | 0.26 | 65 | 1014.2 |
| 20260906032406 | 72 | 218 | 1.7 | 4.3 | 0.00 | 0.26 | 0.26 | 65 | 1014.1 |
| 20260906032306 | 72 | 256 | 1.7 | 4.3 | 0.00 | 0.26 | 0.26 | 65 | 1014.1 |
| 20260906032201 | 72 | 286 | 1.7 | 4.3 | 0.00 | 0.26 | 0.26 | 65 | 1014.1 |
| 20260906032103 | 72 | 260 | 1.7 | 5.2 | 0.00 | 0.26 | 0.26 | 65 | 1014.1 |
| 20260906032000 | 72 | 272 | 1.7 | 5.2 | 0.00 | 0.26 | 0.26 | 65 | 1014.1 |
| 20260906031901 | 72 | 205 | 1.7 | 5.2 | 0.00 | 0.26 | 0.26 | 65 | 1014.0 |
| 20260906031759 | 72 | 276 | 1.7 | 5.2 | 0.00 | 0.26 | 0.26 | 65 | 1014.0 |
| 20260906031659 | 72 | 256 | 1.7 | 5.2 | 0.00 | 0.26 | 0.26 | 65 | 1014.0 |
| 20260906031553 | 72 | 215 | 1.7 | 5.2 | 0.00 | 0.26 | 0.26 | 65 | 1014.0 |
| 20260906031453 | 72 | 270 | 1.7 | 5.2 | 0.00 | 0.26 | 0.26 | 65 | 1014.0 |
| 20260906031352 | 73 | 266 | 2.6 | 5.2 | 0.00 | 0.26 | 0.26 | 65 | 1014.0 |
| 20260906031252 | 72 | 238 | 2.6 | 5.2 | 0.00 | 0.26 | 0.26 | 65 | 1014.0 |
| 20260906031156 | 73 | 263 | 2.6 | 5.2 | 0.00 | 0.26 | 0.26 | 65 | 1014.0 |
| 20260906031053 | 73 | 269 | 1.7 | 5.2 | 0.00 | 0.26 | 0.26 | 65 | 1014.1 |
| 20260906030954 | 73 | 258 | 1.7 | 5.2 | 0.00 | 0.26 | 0.26 | 65 | 1014.1 |
| 20260906030855 | 73 | 264 | 1.7 | 5.2 | 0.00 | 0.26 | 0.26 | 65 | 1014.1 |
| 20260906030753 | 73 | 260 | 1.7 | 5.2 | 0.00 | 0.26 | 0.26 | 65 | 1014.2 |
| 20260906030650 | 73 | 257 | 1.7 | 5.2 | 0.00 | 0.26 | 0.26 | 65 | 1014.2 |
| 20260906030551 | 73 | 240 | 1.7 | 5.2 | 0.00 | 0.26 | 0.26 | 65 | 1014.2 |
| 20260906030449 | 73 | 234 | 1.7 | 5.2 | 0.00 | 0.26 | 0.26 | 65 | 1014.3 |
| 20260906030349 | 73 | 296 | 1.7 | 5.2 | 0.00 | 0.26 | 0.26 | 65 | 1014.3 |
| 20260906030248 | 73 | 295 | 1.7 | 6.1 | 0.00 | 0.26 | 0.26 | 65 | 1014.3 |
| 20260906030147 | 73 | 270 | 1.7 | 6.1 | 0.00 | 0.26 | 0.26 | 65 | 1014.3 |
| 20260906030049 | 73 | 240 | 1.7 | 6.1 | 0.00 | 0.26 | 0.26 | 65 | 1014.3 |
| 20260906025949 | 73 | 262 | 0.9 | 6.1 | 0.00 | 0.26 | 0.26 | 65 | 1014.3 |
| 20260906025849 | 73 | 285 | 0.9 | 6.1 | 0.00 | 0.26 | 0.26 | 65 | 1014.4 |
| 20260906025748 | 73 | 281 | 0.9 | 6.1 | 0.00 | 0.26 | 0.26 | 65 | 1014.4 |
| 20260906025644 | 73 | 263 | 0.9 | 6.1 | 0.00 | 0.26 | 0.26 | 65 | 1014.3 |
| 20260906025544 | 73 | 268 | 0.9 | 6.1 | 0.00 | 0.26 | 0.26 | 65 | 1014.3 |
| 20260906025444 | 73 | 288 | 0.9 | 6.1 | 0.00 | 0.26 | 0.26 | 65 | 1014.4 |
| 20260906025346 | 73 | 252 | 0.9 | 6.1 | 0.00 | 0.26 | 0.26 | 65 | 1014.3 |
| 20260906025243 | 73 | 190 | 1.7 | 4.3 | 0.00 | 0.26 | 0.26 | 65 | 1014.3 |
| 20260906025141 | 73 | 244 | 1.7 | 7.0 | 0.00 | 0.26 | 0.26 | 65 | 1014.3 |
| 20260906025038 | 73 | 244 | 1.7 | 7.0 | 0.00 | 0.26 | 0.26 | 65 | 1014.3 |
| 20260906024936 | 73 | 224 | 1.7 | 7.0 | 0.00 | 0.26 | 0.26 | 65 | 1014.3 |
| 20260906024836 | 73 | 249 | 1.7 | 7.0 | 0.00 | 0.26 | 0.26 | 65 | 1014.3 |
| 20260906024736 | 73 | 266 | 1.7 | 7.0 | 0.00 | 0.26 | 0.26 | 65 | 1014.3 |
| 20260906024632 | 73 | 247 | 1.7 | 7.0 | 0.00 | 0.26 | 0.26 | 65 | 1014.3 |
| 20260906024528 | 73 | 273 | 1.7 | 7.0 | 0.00 | 0.26 | 0.26 | 65 | 1014.3 |
| 20260906024428 | 73 | 268 | 2.6 | 7.0 | 0.00 | 0.26 | 0.26 | 65 | 1014.3 |
| 20260906024326 | 73 | 288 | 2.6 | 7.8 | 0.00 | 0.26 | 0.26 | 65 | 1014.3 |
| 20260906024225 | 73 | 282 | 2.6 | 7.8 | 0.00 | 0.26 | 0.26 | 65 | 1014.2 |
| 20260906024127 | 73 | 281 | 2.6 | 7.8 | 0.00 | 0.26 | 0.26 | 65 | 1014.2 |
| 20260906024027 | 73 | 228 | 2.6 | 7.8 | 0.00 | 0.26 | 0.26 | 65 | 1014.2 |
| 20260906023926 | 73 | 303 | 2.6 | 7.8 | 0.00 | 0.26 | 0.26 | 65 | 1014.1 |
| 20260906023826 | 73 | 258 | 2.6 | 7.8 | 0.00 | 0.26 | 0.26 | 65 | 1014.2 |
| 20260906023727 | 73 | 320 | 2.6 | 7.8 | 0.00 | 0.26 | 0.26 | 65 | 1014.1 |
| 20260906023626 | 73 | 254 | 2.6 | 7.8 | 0.00 | 0.26 | 0.26 | 65 | 1014.1 |
| 20260906023526 | 73 | 232 | 1.7 | 7.8 | 0.00 | 0.26 | 0.26 | 65 | 1014.1 |
| 20260906023427 | 73 | 251 | 1.7 | 7.8 | 0.00 | 0.26 | 0.26 | 65 | 1014.1 |
| 20260906023321 | 73 | 260 | 1.7 | 6.1 | 0.00 | 0.26 | 0.26 | 65 | 1014.1 |
| 20260906023222 | 73 | 278 | 1.7 | 6.1 | 0.00 | 0.26 | 0.26 | 65 | 1014.1 |
| 20260906023119 | 73 | 289 | 1.7 | 7.0 | 0.00 | 0.26 | 0.26 | 65 | 1014.0 |
| 20260906023017 | 73 | 219 | 1.7 | 7.0 | 0.00 | 0.26 | 0.26 | 64 | 1014.0 |
| 20260906022917 | 73 | 272 | 1.7 | 7.0 | 0.00 | 0.26 | 0.26 | 64 | 1014.0 |
| 20260906022817 | 73 | 335 | 2.6 | 7.0 | 0.00 | 0.26 | 0.26 | 64 | 1014.0 |
| 20260906022711 | 73 | 256 | 2.6 | 7.0 | 0.00 | 0.26 | 0.26 | 64 | 1014.0 |
| 20260906022613 | 73 | 193 | 2.6 | 7.0 | 0.00 | 0.26 | 0.26 | 64 | 1013.9 |
| 20260906022510 | 73 | 288 | 2.6 | 7.0 | 0.00 | 0.26 | 0.26 | 64 | 1013.9 |
| 20260906022418 | 73 | 189 | 2.6 | 7.0 | 0.00 | 0.26 | 0.26 | 64 | 1013.9 |
| 20260906022306 | 73 | 248 | 2.6 | 7.0 | 0.00 | 0.26 | 0.26 | 64 | 1014.0 |
| 20260906022204 | 73 | 269 | 2.6 | 7.0 | 0.00 | 0.26 | 0.26 | 64 | 1013.9 |
| 20260906022104 | 73 | 191 | 2.6 | 7.0 | 0.00 | 0.26 | 0.26 | 64 | 1013.9 |
| 20260906022003 | 73 | 216 | 2.6 | 7.0 | 0.00 | 0.26 | 0.26 | 64 | 1013.9 |
| 20260906021856 | 73 | 271 | 2.6 | 7.0 | 0.00 | 0.26 | 0.26 | 64 | 1014.0 |
| 20260906021658 | 73 | 272 | 1.7 | 6.1 | 0.00 | 0.26 | 0.26 | 64 | 1014.0 |
| 20260906021558 | 73 | 263 | 1.7 | 6.1 | 0.00 | 0.26 | 0.26 | 64 | 1014.0 |
| 20260906021451 | 73 | 237 | 1.7 | 6.1 | 0.00 | 0.26 | 0.26 | 64 | 1014.0 |
| 20260906021353 | 73 | 303 | 1.7 | 6.1 | 0.00 | 0.26 | 0.26 | 64 | 1014.0 |
| 20260906021247 | 73 | 284 | 1.7 | 6.1 | 0.00 | 0.26 | 0.26 | 64 | 1014.0 |
| 20260906021148 | 73 | 258 | 0.9 | 6.1 | 0.00 | 0.26 | 0.26 | 64 | 1014.0 |
| 20260906021045 | 73 | 293 | 0.9 | 6.1 | 0.00 | 0.26 | 0.26 | 64 | 1013.9 |
| 20260906020950 | 73 | 262 | 0.9 | 6.1 | 0.00 | 0.26 | 0.26 | 64 | 1013.9 |
| 20260906020846 | 73 | 262 | 0.9 | 6.1 | 0.00 | 0.26 | 0.26 | 64 | 1013.9 |
| 20260906020747 | 73 | 251 | 0.9 | 6.1 | 0.00 | 0.26 | 0.26 | 64 | 1014.0 |
| 20260906020650 | 73 | 265 | 0.9 | 2.6 | 0.00 | 0.26 | 0.26 | 64 | 1014.0 |
| 20260906020549 | 73 | 265 | 0.9 | 2.6 | 0.00 | 0.26 | 0.26 | 64 | 1014.0 |
| 20260906020444 | 73 | 265 | 0.9 | 2.6 | 0.00 | 0.26 | 0.26 | 64 | 1014.0 |
| 20260906020344 | 73 | 274 | 0.9 | 2.6 | 0.00 | 0.26 | 0.26 | 65 | 1014.0 |
| 20260906020248 | 73 | 272 | 0.9 | 2.6 | 0.00 | 0.26 | 0.26 | 65 | 1014.0 |
| 20260906020143 | 73 | 251 | 0.9 | 2.6 | 0.00 | 0.26 | 0.26 | 65 | 1014.1 |
| 20260906020042 | 73 | 189 | 0.9 | 2.6 | 0.00 | 0.26 | 0.26 | 65 | 1014.0 |
| 20260906015945 | 73 | 218 | 0.9 | 2.6 | 0.00 | 0.26 | 0.26 | 65 | 1014.1 |
| 20260906015840 | 73 | 180 | 0.9 | 4.3 | 0.00 | 0.26 | 0.26 | 65 | 1014.0 |
| 20260906015741 | 73 | 202 | 0.9 | 4.3 | 0.00 | 0.26 | 0.26 | 65 | 1014.0 |
| 20260906015644 | 73 | 78 | 0.9 | 4.3 | 0.00 | 0.26 | 0.26 | 65 | 1014.0 |
| 20260906015543 | 73 | 206 | 0.9 | 4.3 | 0.00 | 0.26 | 0.26 | 65 | 1014.0 |
| 20260906015437 | 73 | 284 | 0.9 | 5.2 | 0.00 | 0.26 | 0.26 | 65 | 1014.0 |
| 20260906015340 | 73 | 225 | 0.9 | 5.2 | 0.00 | 0.26 | 0.26 | 65 | 1013.9 |
| 20260906015236 | 73 | 258 | 0.9 | 5.2 | 0.00 | 0.26 | 0.26 | 65 | 1013.9 |
| 20260906015137 | 73 | 237 | 1.7 | 5.2 | 0.00 | 0.26 | 0.26 | 65 | 1014.0 |
| 20260906015037 | 73 | 237 | 1.7 | 5.2 | 0.00 | 0.26 | 0.26 | 65 | 1014.0 |
| 20260906014936 | 73 | 264 | 1.7 | 5.2 | 0.00 | 0.26 | 0.26 | 65 | 1013.9 |
| 20260906014837 | 73 | 244 | 1.7 | 5.2 | 0.00 | 0.26 | 0.26 | 65 | 1014.0 |
| 20260906014738 | 73 | 272 | 1.7 | 5.2 | 0.00 | 0.26 | 0.26 | 65 | 1014.0 |
| 20260906014634 | 73 | 251 | 1.7 | 5.2 | 0.00 | 0.26 | 0.26 | 65 | 1013.9 |
| 20260906014534 | 73 | 260 | 1.7 | 5.2 | 0.00 | 0.26 | 0.26 | 65 | 1013.8 |
| 20260906014435 | 73 | 269 | 1.7 | 5.2 | 0.00 | 0.26 | 0.26 | 65 | 1013.8 |
| 20260906014331 | 73 | 270 | 2.6 | 5.2 | 0.00 | 0.26 | 0.26 | 65 | 1013.8 |
| 20260906014232 | 73 | 212 | 2.6 | 5.2 | 0.00 | 0.26 | 0.26 | 65 | 1013.7 |
| 20260906014135 | 73 | 302 | 2.6 | 5.2 | 0.00 | 0.26 | 0.26 | 65 | 1013.8 |
| 20260906014032 | 73 | 299 | 1.7 | 5.2 | 0.00 | 0.26 | 0.26 | 65 | 1013.8 |
| 20260906013927 | 73 | 242 | 1.7 | 5.2 | 0.00 | 0.26 | 0.26 | 65 | 1013.8 |
| 20260906013828 | 73 | 180 | 1.7 | 5.2 | 0.00 | 0.26 | 0.26 | 65 | 1013.7 |
| 20260906013726 | 73 | 180 | 2.6 | 5.2 | 0.00 | 0.26 | 0.26 | 65 | 1013.7 |
| 20260906013628 | 73 | 180 | 2.6 | 5.2 | 0.00 | 0.26 | 0.26 | 65 | 1013.6 |
| 20260906013526 | 73 | 180 | 1.7 | 5.2 | 0.00 | 0.26 | 0.26 | 65 | 1013.6 |
| 20260906013425 | 73 | 180 | 1.7 | 5.2 | 0.00 | 0.26 | 0.26 | 65 | 1013.6 |
| 20260906013323 | 73 | 247 | 1.7 | 5.2 | 0.00 | 0.26 | 0.26 | 65 | 1013.5 |
| 20260906013224 | 74 | 180 | 1.7 | 4.3 | 0.00 | 0.26 | 0.26 | 65 | 1013.5 |
| 20260906013123 | 74 | 180 | 1.7 | 4.3 | 0.00 | 0.26 | 0.26 | 65 | 1013.5 |
| 20260906013021 | 74 | 180 | 1.7 | 4.3 | 0.00 | 0.26 | 0.26 | 65 | 1013.6 |
| 20260906012919 | 74 | 180 | 1.7 | 4.3 | 0.00 | 0.26 | 0.26 | 65 | 1013.6 |
| 20260906012819 | 74 | 180 | 1.7 | 4.3 | 0.00 | 0.26 | 0.26 | 65 | 1013.6 |
| 20260906012716 | 74 | 180 | 1.7 | 4.3 | 0.00 | 0.26 | 0.26 | 66 | 1013.6 |
| 20260906012617 | 74 | 180 | 1.7 | 4.3 | 0.00 | 0.26 | 0.26 | 66 | 1013.6 |
| 20260906012512 | 74 | 180 | 1.7 | 4.3 | 0.00 | 0.26 | 0.26 | 66 | 1013.7 |
| 20260906012416 | 74 | 180 | 1.7 | 5.2 | 0.00 | 0.26 | 0.26 | 66 | 1013.6 |
| 20260906012308 | 74 | 180 | 1.7 | 6.1 | 0.00 | 0.26 | 0.26 | 66 | 1013.6 |
| 20260906012206 | 74 | 180 | 1.7 | 6.1 | 0.00 | 0.26 | 0.26 | 66 | 1013.5 |
| 20260906012106 | 74 | 180 | 2.6 | 6.1 | 0.00 | 0.26 | 0.26 | 66 | 1013.5 |
| 20260906011914 | 74 | 180 | 2.6 | 6.1 | 0.00 | 0.26 | 0.26 | 66 | 1013.5 |
| 20260906011811 | 74 | 180 | 2.6 | 6.1 | 0.00 | 0.26 | 0.26 | 66 | 1013.5 |
| 20260906011703 | 74 | 180 | 2.6 | 6.1 | 0.00 | 0.26 | 0.26 | 66 | 1013.5 |
| 20260906011606 | 74 | 180 | 2.6 | 6.1 | 0.00 | 0.26 | 0.26 | 66 | 1013.4 |
| 20260906011501 | 74 | 180 | 1.7 | 6.1 | 0.00 | 0.26 | 0.26 | 66 | 1013.4 |
| 20260906011403 | 74 | 180 | 1.7 | 5.2 | 0.00 | 0.26 | 0.26 | 66 | 1013.4 |
| 20260906011301 | 74 | 180 | 1.7 | 4.3 | 0.00 | 0.26 | 0.26 | 66 | 1013.4 |
| 20260906011158 | 74 | 180 | 1.7 | 4.3 | 0.00 | 0.26 | 0.26 | 66 | 1013.4 |
| 20260906011056 | 74 | 180 | 1.7 | 4.3 | 0.00 | 0.26 | 0.26 | 66 | 1013.4 |
| 20260906010957 | 74 | 180 | 1.7 | 4.3 | 0.00 | 0.26 | 0.26 | 66 | 1013.4 |
| 20260906010854 | 74 | 180 | 1.7 | 4.3 | 0.00 | 0.26 | 0.26 | 66 | 1013.3 |
| 20260906010801 | 74 | 180 | 1.7 | 4.3 | 0.00 | 0.26 | 0.26 | 66 | 1013.3 |
| 20260906010648 | 74 | 180 | 2.6 | 8.7 | 0.00 | 0.26 | 0.26 | 66 | 1013.2 |
| 20260906010550 | 74 | 180 | 2.6 | 8.7 | 0.00 | 0.26 | 0.26 | 66 | 1013.2 |
| 20260906010446 | 74 | 180 | 2.6 | 8.7 | 0.00 | 0.26 | 0.26 | 66 | 1013.2 |
| 20260906010347 | 74 | 180 | 2.6 | 8.7 | 0.00 | 0.26 | 0.26 | 66 | 1013.1 |
| 20260906010246 | 74 | 180 | 2.6 | 8.7 | 0.00 | 0.26 | 0.26 | 66 | 1013.2 |
| 20260906010145 | 74 | 180 | 2.6 | 8.7 | 0.00 | 0.26 | 0.26 | 66 | 1013.2 |
| 20260906010042 | 74 | 180 | 2.6 | 8.7 | 0.00 | 0.26 | 0.26 | 66 | 1013.2 |
| 20260906005943 | 74 | 180 | 2.6 | 8.7 | 0.00 | 0.26 | 0.26 | 66 | 1013.2 |
| 20260906005842 | 74 | 180 | 1.7 | 8.7 | 0.00 | 0.26 | 0.26 | 65 | 1013.1 |
| 20260906005738 | 74 | 180 | 1.7 | 8.7 | 0.00 | 0.26 | 0.26 | 65 | 1013.1 |
| 20260906005639 | 74 | 180 | 1.7 | 5.2 | 0.00 | 0.26 | 0.26 | 65 | 1013.0 |
| 20260906005538 | 74 | 180 | 1.7 | 5.2 | 0.00 | 0.26 | 0.26 | 65 | 1013.0 |
| 20260906005438 | 74 | 180 | 1.7 | 5.2 | 0.00 | 0.26 | 0.26 | 65 | 1013.1 |
| 20260906005340 | 75 | 180 | 1.7 | 3.5 | 0.00 | 0.26 | 0.26 | 65 | 1013.1 |
| 20260906005238 | 75 | 180 | 1.7 | 4.3 | 0.00 | 0.26 | 0.26 | 65 | 1013.2 |
| 20260906005137 | 75 | 180 | 1.7 | 6.1 | 0.00 | 0.26 | 0.26 | 65 | 1013.2 |
| 20260906005034 | 75 | 180 | 1.7 | 6.1 | 0.00 | 0.26 | 0.26 | 65 | 1013.3 |
| 20260906004937 | 75 | 180 | 1.7 | 6.1 | 0.00 | 0.26 | 0.26 | 65 | 1013.3 |
| 20260906004836 | 75 | 180 | 1.7 | 6.1 | 0.00 | 0.26 | 0.26 | 65 | 1013.2 |
| 20260906004733 | 75 | 180 | 1.7 | 6.1 | 0.00 | 0.26 | 0.26 | 64 | 1013.1 |
| 20260906004631 | 75 | 180 | 1.7 | 6.1 | 0.00 | 0.26 | 0.26 | 64 | 1013.0 |
| 20260906004530 | 75 | 180 | 1.7 | 6.1 | 0.00 | 0.26 | 0.26 | 64 | 1013.0 |
| 20260906004429 | 75 | 180 | 1.7 | 6.1 | 0.00 | 0.26 | 0.26 | 64 | 1013.0 |
| 20260906004329 | 75 | 180 | 1.7 | 6.1 | 0.00 | 0.26 | 0.26 | 64 | 1013.0 |
| 20260906004228 | 75 | 180 | 1.7 | 6.1 | 0.00 | 0.26 | 0.26 | 64 | 1013.1 |
| 20260906004127 | 75 | 180 | 1.7 | 4.3 | 0.00 | 0.26 | 0.26 | 63 | 1013.1 |
| 20260906004027 | 75 | 180 | 1.7 | 4.3 | 0.00 | 0.26 | 0.26 | 63 | 1013.1 |
| 20260906003924 | 75 | 180 | 1.7 | 5.2 | 0.00 | 0.26 | 0.26 | 63 | 1013.2 |
| 20260906003824 | 75 | 180 | 2.6 | 7.0 | 0.00 | 0.26 | 0.26 | 63 | 1013.1 |
| 20260906003726 | 75 | 180 | 2.6 | 7.0 | 0.00 | 0.26 | 0.26 | 63 | 1013.0 |
| 20260906003624 | 75 | 180 | 2.6 | 7.0 | 0.00 | 0.26 | 0.26 | 63 | 1013.0 |
| 20260906003525 | 75 | 180 | 2.6 | 7.0 | 0.00 | 0.26 | 0.26 | 63 | 1013.0 |
| 20260906003425 | 75 | 180 | 2.6 | 7.0 | 0.00 | 0.26 | 0.26 | 63 | 1013.0 |
| 20260906003322 | 75 | 180 | 1.7 | 7.0 | 0.00 | 0.26 | 0.26 | 63 | 1013.0 |
| 20260906003221 | 75 | 180 | 1.7 | 7.0 | 0.00 | 0.26 | 0.26 | 63 | 1013.0 |
| 20260906003125 | 75 | 180 | 1.7 | 7.0 | 0.00 | 0.26 | 0.26 | 63 | 1012.9 |
| 20260906003020 | 75 | 180 | 1.7 | 7.0 | 0.00 | 0.26 | 0.26 | 63 | 1012.9 |
| 20260906002921 | 75 | 180 | 1.7 | 7.0 | 0.00 | 0.26 | 0.26 | 63 | 1012.9 |
| 20260906002817 | 75 | 180 | 1.7 | 5.2 | 0.00 | 0.26 | 0.26 | 63 | 1012.8 |
| 20260906002713 | 75 | 180 | 1.7 | 5.2 | 0.00 | 0.26 | 0.26 | 62 | 1012.7 |
| 20260906002614 | 75 | 180 | 1.7 | 5.2 | 0.00 | 0.26 | 0.26 | 62 | 1012.7 |
| 20260906002513 | 75 | 180 | 0.9 | 5.2 | 0.00 | 0.26 | 0.26 | 62 | 1012.7 |
| 20260906002406 | 75 | 180 | 0.9 | 5.2 | 0.00 | 0.26 | 0.26 | 63 | 1012.7 |
| 20260906002308 | 75 | 180 | 0.9 | 5.2 | 0.00 | 0.26 | 0.26 | 63 | 1012.7 |
| 20260906002159 | 75 | 180 | 0.9 | 5.2 | 0.00 | 0.26 | 0.26 | 63 | 1012.7 |
| 20260906002114 | 75 | 180 | 0.9 | 5.2 | 0.00 | 0.26 | 0.26 | 63 | 1012.7 |
| 20260906001958 | 75 | 180 | 0.9 | 5.2 | 0.00 | 0.26 | 0.26 | 63 | 1012.7 |
| 20260906001858 | 75 | 180 | 0.9 | 5.2 | 0.00 | 0.26 | 0.26 | 63 | 1012.7 |
| 20260906001756 | 75 | 180 | 0.9 | 5.2 | 0.00 | 0.26 | 0.26 | 63 | 1012.7 |
| 20260906001659 | 75 | 180 | 0.9 | 2.6 | 0.00 | 0.26 | 0.26 | 63 | 1012.7 |
| 20260906001554 | 75 | 180 | 0.9 | 2.6 | 0.00 | 0.26 | 0.26 | 63 | 1012.7 |
| 20260906001455 | 75 | 180 | 0.9 | 2.6 | 0.00 | 0.26 | 0.26 | 63 | 1012.7 |
| 20260906001348 | 75 | 180 | 0.9 | 2.6 | 0.00 | 0.26 | 0.26 | 63 | 1012.7 |
| 20260906001248 | 75 | 180 | 0.9 | 2.6 | 0.00 | 0.26 | 0.26 | 63 | 1012.7 |
| 20260906001146 | 75 | 180 | 0.9 | 2.6 | 0.00 | 0.26 | 0.26 | 63 | 1012.6 |
| 20260906001048 | 74 | 180 | 0.9 | 2.6 | 0.00 | 0.26 | 0.26 | 63 | 1012.6 |
| 20260906000944 | 74 | 180 | 0.0 | 2.6 | 0.00 | 0.26 | 0.26 | 63 | 1012.6 |
| 20260906000844 | 74 | 180 | 0.0 | 2.6 | 0.00 | 0.26 | 0.26 | 64 | 1012.6 |
| 20260906000745 | 74 | 180 | 0.0 | 1.7 | 0.00 | 0.26 | 0.26 | 64 | 1012.7 |
| 20260906000643 | 74 | 180 | 0.0 | 1.7 | 0.00 | 0.26 | 0.26 | 64 | 1012.7 |
| 20260906000544 | 74 | 180 | 0.0 | 1.7 | 0.00 | 0.26 | 0.26 | 64 | 1012.7 |
| 20260906000445 | 74 | 180 | 0.0 | 1.7 | 0.00 | 0.26 | 0.26 | 64 | 1012.7 |
| 20260906000348 | 74 | 180 | 0.0 | 1.7 | 0.00 | 0.26 | 0.26 | 64 | 1012.7 |
| 20260906000244 | 74 | 180 | 0.0 | 1.7 | 0.00 | 0.26 | 0.26 | 64 | 1012.6 |
| 20260906000144 | 74 | 180 | 0.0 | 1.7 | 0.00 | 0.26 | 0.26 | 64 | 1012.6 |
| 20260906000043 | 74 | 180 | 0.0 | 1.7 | 0.00 | 0.26 | 0.26 | 64 | 1012.6 |
| 20260905235942 | 74 | 180 | 0.0 | 1.7 | 0.00 | 0.26 | 0.26 | 64 | 1012.6 |
| 20260905235840 | 74 | 180 | 0.0 | 1.7 | 0.00 | 0.26 | 0.26 | 64 | 1012.6 |
| 20260905235745 | 74 | 180 | 0.0 | 1.7 | 0.00 | 0.26 | 0.26 | 64 | 1012.6 |
| 20260905235639 | 74 | 180 | 0.0 | 1.7 | 0.00 | 0.26 | 0.26 | 65 | 1012.7 |
| 20260905235548 | 74 | 180 | 0.0 | 1.7 | 0.00 | 0.26 | 0.26 | 65 | 1012.7 |
| 20260905235438 | 74 | 180 | 0.0 | 1.7 | 0.00 | 0.26 | 0.26 | 65 | 1012.7 |
| 20260905235335 | 74 | 180 | 0.0 | 1.7 | 0.00 | 0.26 | 0.26 | 65 | 1012.7 |
| 20260905235234 | 74 | 180 | 0.0 | 1.7 | 0.00 | 0.26 | 0.26 | 65 | 1012.7 |
| 20260905235133 | 74 | 180 | 0.0 | 1.7 | 0.00 | 0.26 | 0.26 | 65 | 1012.7 |
| 20260905235033 | 74 | 180 | 0.0 | 1.7 | 0.00 | 0.26 | 0.26 | 65 | 1012.7 |
| 20260905234936 | 74 | 180 | 0.9 | 1.7 | 0.00 | 0.26 | 0.26 | 65 | 1012.7 |
| 20260905234832 | 74 | 180 | 0.9 | 1.7 | 0.00 | 0.26 | 0.26 | 65 | 1012.7 |
| 20260905234731 | 74 | 180 | 0.9 | 1.7 | 0.00 | 0.26 | 0.26 | 65 | 1012.6 |
| 20260905234628 | 74 | 180 | 0.9 | 1.7 | 0.00 | 0.26 | 0.26 | 65 | 1012.6 |
| 20260905234525 | 74 | 194 | 0.9 | 1.7 | 0.00 | 0.26 | 0.26 | 65 | 1012.6 |
| 20260905234427 | 74 | 194 | 0.9 | 1.7 | 0.00 | 0.26 | 0.26 | 65 | 1012.6 |
| 20260905234324 | 74 | 194 | 0.9 | 1.7 | 0.00 | 0.26 | 0.26 | 65 | 1012.4 |
| 20260905234226 | 74 | 194 | 0.9 | 1.7 | 0.00 | 0.26 | 0.26 | 65 | 1012.4 |
| 20260905234123 | 74 | 193 | 0.9 | 1.7 | 0.00 | 0.26 | 0.26 | 65 | 1012.6 |
| 20260905234021 | 74 | 193 | 0.9 | 1.7 | 0.00 | 0.26 | 0.26 | 65 | 1012.6 |
| 20260905233922 | 74 | 232 | 0.0 | 1.7 | 0.00 | 0.26 | 0.26 | 66 | 1012.4 |
| 20260905233823 | 74 | 259 | 0.0 | 1.7 | 0.00 | 0.26 | 0.26 | 66 | 1012.3 |
| 20260905233722 | 74 | 258 | 0.0 | 1.7 | 0.00 | 0.26 | 0.26 | 66 | 1012.2 |
| 20260905233622 | 75 | 115 | 0.0 | 0.9 | 0.00 | 0.26 | 0.26 | 66 | 1012.3 |
| 20260905233519 | 74 | 115 | 0.0 | 0.9 | 0.00 | 0.26 | 0.26 | 66 | 1012.4 |
| 20260905233419 | 74 | 115 | 0.0 | 0.9 | 0.00 | 0.26 | 0.26 | 66 | 1012.4 |
| 20260905233317 | 75 | 115 | 0.0 | 0.9 | 0.00 | 0.26 | 0.26 | 66 | 1012.4 |
| 20260905233216 | 75 | 115 | 0.0 | 0.9 | 0.00 | 0.26 | 0.26 | 66 | 1012.3 |
| 20260905233118 | 75 | 115 | 0.0 | 0.9 | 0.00 | 0.26 | 0.26 | 66 | 1012.3 |
| 20260905233015 | 75 | 115 | 0.0 | 0.9 | 0.00 | 0.26 | 0.26 | 65 | 1012.4 |
| 20260905232913 | 75 | 115 | 0.0 | 0.9 | 0.00 | 0.26 | 0.26 | 65 | 1012.4 |
| 20260905232813 | 75 | 115 | 0.0 | 0.9 | 0.00 | 0.26 | 0.26 | 65 | 1012.4 |
| 20260905232712 | 75 | 115 | 0.0 | 0.9 | 0.00 | 0.26 | 0.26 | 65 | 1012.4 |
| 20260905232611 | 75 | 115 | 0.0 | 0.9 | 0.00 | 0.26 | 0.26 | 65 | 1012.4 |
| 20260905232510 | 75 | 115 | 0.0 | 0.9 | 0.00 | 0.26 | 0.26 | 65 | 1012.4 |
| 20260905232411 | 75 | 115 | 0.0 | 0.9 | 0.00 | 0.26 | 0.26 | 65 | 1012.6 |
| 20260905232309 | 75 | 115 | 0.0 | 0.9 | 0.00 | 0.26 | 0.26 | 65 | 1012.4 |
| 20260905232205 | 75 | 115 | 0.0 | 0.9 | 0.00 | 0.26 | 0.26 | 65 | 1012.4 |
| 20260905232105 | 75 | 115 | 0.0 | 0.9 | 0.00 | 0.26 | 0.26 | 65 | 1012.4 |
| 20260905232007 | 75 | 115 | 0.0 | 0.9 | 0.00 | 0.26 | 0.26 | 65 | 1012.3 |
| 20260905231900 | 75 | 115 | 0.0 | 0.9 | 0.00 | 0.26 | 0.26 | 65 | 1012.4 |
| 20260905231802 | 75 | 115 | 0.0 | 0.9 | 0.00 | 0.26 | 0.26 | 65 | 1012.4 |
| 20260905231658 | 75 | 115 | 0.0 | 0.9 | 0.00 | 0.26 | 0.26 | 65 | 1012.4 |
| 20260905231555 | 75 | 115 | 0.0 | 0.9 | 0.00 | 0.26 | 0.26 | 64 | 1012.4 |
| 20260905231456 | 75 | 115 | 0.0 | 0.9 | 0.00 | 0.26 | 0.26 | 64 | 1012.4 |
| 20260905231355 | 75 | 115 | 0.0 | 1.7 | 0.00 | 0.26 | 0.26 | 64 | 1012.4 |
| 20260905231254 | 74 | 115 | 0.9 | 1.7 | 0.00 | 0.26 | 0.26 | 64 | 1012.4 |
| 20260905231154 | 74 | 115 | 0.9 | 1.7 | 0.00 | 0.26 | 0.26 | 65 | 1012.4 |
| 20260905231047 | 74 | 115 | 0.9 | 1.7 | 0.00 | 0.26 | 0.26 | 65 | 1012.4 |
| 20260905230949 | 74 | 147 | 0.9 | 1.7 | 0.00 | 0.26 | 0.26 | 65 | 1012.4 |
| 20260905230845 | 74 | 147 | 0.9 | 1.7 | 0.00 | 0.26 | 0.26 | 65 | 1012.3 |
| 20260905230753 | 74 | 147 | 0.9 | 1.7 | 0.00 | 0.26 | 0.26 | 65 | 1012.3 |
| 20260905230644 | 74 | 147 | 0.9 | 1.7 | 0.00 | 0.26 | 0.26 | 65 | 1012.2 |
| 20260905230545 | 74 | 147 | 0.9 | 1.7 | 0.00 | 0.26 | 0.26 | 65 | 1012.3 |
| 20260905230441 | 74 | 147 | 0.9 | 1.7 | 0.00 | 0.26 | 0.26 | 65 | 1012.3 |
| 20260905230343 | 74 | 147 | 0.9 | 1.7 | 0.00 | 0.26 | 0.26 | 65 | 1012.4 |
| 20260905230236 | 74 | 147 | 0.9 | 1.7 | 0.00 | 0.26 | 0.26 | 65 | 1012.4 |
| 20260905230136 | 74 | 147 | 0.9 | 1.7 | 0.00 | 0.26 | 0.26 | 65 | 1012.4 |
| 20260905230033 | 74 | 147 | 0.9 | 1.7 | 0.00 | 0.26 | 0.26 | 65 | 1012.4 |
| 20260905225936 | 74 | 147 | 0.9 | 1.7 | 0.00 | 0.26 | 0.26 | 65 | 1012.4 |
| 20260905225831 | 74 | 103 | 0.9 | 1.7 | 0.00 | 0.26 | 0.26 | 65 | 1012.6 |
| 20260905225734 | 74 | 103 | 0.9 | 1.7 | 0.00 | 0.26 | 0.26 | 65 | 1012.6 |
| 20260905225630 | 74 | 88 | 0.0 | 1.7 | 0.00 | 0.26 | 0.26 | 66 | 1012.7 |
| 20260905225532 | 74 | 180 | 0.9 | 1.7 | 0.00 | 0.26 | 0.26 | 66 | 1012.8 |
| 20260905225427 | 74 | 180 | 0.9 | 1.7 | 0.00 | 0.26 | 0.26 | 66 | 1012.8 |
| 20260905225327 | 73 | 180 | 0.9 | 2.6 | 0.00 | 0.26 | 0.26 | 66 | 1012.9 |
| 20260905225227 | 73 | 180 | 0.9 | 2.6 | 0.00 | 0.26 | 0.26 | 66 | 1013.0 |
| 20260905225128 | 73 | 180 | 0.9 | 3.5 | 0.00 | 0.26 | 0.26 | 66 | 1013.1 |
| 20260905225026 | 73 | 347 | 0.9 | 3.5 | 0.00 | 0.26 | 0.26 | 67 | 1013.2 |
| 20260905224927 | 73 | 105 | 0.9 | 3.5 | 0.00 | 0.26 | 0.26 | 67 | 1013.1 |
| 20260905224823 | 73 | 4 | 0.9 | 3.5 | 0.00 | 0.26 | 0.26 | 67 | 1013.2 |
| 20260905224725 | 73 | 39 | 0.9 | 3.5 | 0.00 | 0.26 | 0.26 | 67 | 1013.3 |
| 20260905224621 | 73 | 38 | 0.9 | 3.5 | 0.00 | 0.26 | 0.26 | 67 | 1013.3 |
| 20260905224523 | 73 | 109 | 0.9 | 3.5 | 0.00 | 0.26 | 0.26 | 67 | 1013.3 |
| 20260905224420 | 73 | 49 | 0.9 | 3.5 | 0.00 | 0.26 | 0.26 | 67 | 1013.2 |
| 20260905224320 | 73 | 43 | 0.0 | 3.5 | 0.00 | 0.26 | 0.26 | 67 | 1013.2 |
| 20260905224216 | 73 | 85 | 0.0 | 1.7 | 0.00 | 0.26 | 0.26 | 67 | 1013.2 |
| 20260905224113 | 73 | 359 | 0.0 | 1.7 | 0.00 | 0.26 | 0.26 | 67 | 1013.2 |
| 20260905223912 | 73 | 222 | 0.0 | 0.9 | 0.00 | 0.26 | 0.26 | 67 | 1013.2 |
| 20260905223810 | 73 | 221 | 0.0 | 0.9 | 0.00 | 0.26 | 0.26 | 67 | 1013.2 |
| 20260905223713 | 73 | 222 | 0.0 | 0.9 | 0.00 | 0.26 | 0.26 | 66 | 1013.1 |
| 20260905223607 | 73 | 222 | 0.0 | 0.9 | 0.00 | 0.26 | 0.26 | 66 | 1013.0 |
| 20260905223506 | 73 | 222 | 0.0 | 0.9 | 0.00 | 0.26 | 0.26 | 67 | 1013.0 |
| 20260905223406 | 73 | 221 | 0.0 | 0.9 | 0.00 | 0.26 | 0.26 | 67 | 1013.0 |
| 20260905223304 | 73 | 209 | 0.0 | 0.9 | 0.00 | 0.26 | 0.26 | 67 | 1012.9 |
| 20260905223205 | 73 | 209 | 0.0 | 0.9 | 0.00 | 0.26 | 0.26 | 67 | 1012.8 |
| 20260905223109 | 73 | 209 | 0.0 | 0.9 | 0.00 | 0.26 | 0.26 | 67 | 1012.7 |
| 20260905223004 | 73 | 209 | 0.0 | 0.9 | 0.00 | 0.26 | 0.26 | 67 | 1012.6 |
| 20260905222905 | 73 | 209 | 0.0 | 0.9 | 0.00 | 0.26 | 0.26 | 68 | 1012.4 |
| 20260905222805 | 73 | 209 | 0.0 | 0.9 | 0.00 | 0.26 | 0.26 | 68 | 1012.4 |
| 20260905222706 | 73 | 209 | 0.0 | 0.9 | 0.00 | 0.26 | 0.26 | 69 | 1012.3 |
| 20260905222603 | 73 | 209 | 0.0 | 0.9 | 0.00 | 0.26 | 0.26 | 69 | 1012.2 |
| 20260905222500 | 73 | 209 | 0.0 | 0.9 | 0.00 | 0.26 | 0.26 | 69 | 1012.2 |
| 20260905222403 | 73 | 209 | 0.0 | 0.9 | 0.01 | 0.26 | 0.26 | 68 | 1012.2 |
| 20260905222257 | 73 | 209 | 0.0 | 1.7 | 0.02 | 0.26 | 0.26 | 69 | 1012.2 |
| 20260905222157 | 73 | 209 | 0.0 | 1.7 | 0.03 | 0.26 | 0.26 | 69 | 1012.2 |
| 20260905222057 | 73 | 209 | 0.0 | 1.7 | 0.03 | 0.26 | 0.26 | 69 | 1012.2 |
| 20260905221956 | 73 | 209 | 0.0 | 1.7 | 0.06 | 0.26 | 0.26 | 69 | 1012.2 |
| 20260905221854 | 73 | 209 | 0.0 | 1.7 | 0.08 | 0.26 | 0.26 | 69 | 1012.2 |
| 20260905221755 | 73 | 209 | 0.0 | 1.7 | 0.10 | 0.26 | 0.26 | 69 | 1012.2 |
| 20260905221651 | 73 | 209 | 0.0 | 1.7 | 0.14 | 0.26 | 0.26 | 69 | 1012.2 |
| 20260905221553 | 73 | 209 | 0.9 | 1.7 | 0.18 | 0.26 | 0.26 | 70 | 1012.2 |
| 20260905221452 | 73 | 209 | 0.9 | 1.7 | 0.21 | 0.26 | 0.26 | 70 | 1012.2 |
| 20260905221352 | 73 | 209 | 0.9 | 1.7 | 0.22 | 0.26 | 0.26 | 70 | 1012.2 |
| 20260905221249 | 73 | 198 | 0.9 | 1.7 | 0.23 | 0.26 | 0.26 | 70 | 1012.2 |
| 20260905221141 | 73 | 198 | 0.9 | 1.7 | 0.24 | 0.26 | 0.26 | 70 | 1012.2 |
| 20260905221042 | 73 | 198 | 0.9 | 1.7 | 0.24 | 0.26 | 0.26 | 70 | 1012.2 |
| 20260905220941 | 73 | 198 | 0.9 | 1.7 | 0.24 | 0.26 | 0.26 | 70 | 1012.2 |
| 20260905220842 | 73 | 198 | 0.9 | 1.7 | 0.24 | 0.26 | 0.26 | 71 | 1012.2 |
| 20260905220739 | 73 | 198 | 0.9 | 1.7 | 0.24 | 0.26 | 0.26 | 71 | 1012.2 |
| 20260905220637 | 73 | 198 | 0.9 | 1.7 | 0.24 | 0.26 | 0.26 | 71 | 1012.2 |
| 20260905220535 | 73 | 198 | 0.0 | 1.7 | 0.25 | 0.26 | 0.26 | 71 | 1012.1 |
| 20260905220437 | 73 | 198 | 0.0 | 1.7 | 0.25 | 0.26 | 0.26 | 71 | 1012.1 |
| 20260905220331 | 73 | 198 | 0.0 | 1.7 | 0.25 | 0.26 | 0.26 | 71 | 1012.1 |
| 20260905220230 | 73 | 316 | 0.0 | 1.7 | 0.25 | 0.26 | 0.26 | 71 | 1012.1 |
| 20260905220128 | 73 | 316 | 0.0 | 1.7 | 0.25 | 0.26 | 0.26 | 72 | 1012.1 |
| 20260905220027 | 73 | 326 | 0.0 | 1.7 | 0.25 | 0.26 | 0.26 | 72 | 1012.1 |
| 20260905215925 | 73 | 348 | 0.0 | 1.7 | 0.25 | 0.26 | 0.26 | 72 | 1012.1 |
| 20260905215828 | 73 | 348 | 0.0 | 0.9 | 0.25 | 0.26 | 0.26 | 72 | 1012.2 |
| 20260905215728 | 73 | 66 | 0.0 | 0.9 | 0.25 | 0.26 | 0.26 | 73 | 1012.1 |
| 20260905215628 | 73 | 66 | 0.0 | 1.7 | 0.25 | 0.26 | 0.26 | 73 | 1012.2 |
| 20260905215525 | 73 | 66 | 0.0 | 1.7 | 0.25 | 0.26 | 0.26 | 73 | 1012.2 |
| 20260905215422 | 73 | 66 | 0.0 | 1.7 | 0.25 | 0.26 | 0.26 | 74 | 1012.3 |
| 20260905215324 | 73 | 66 | 0.0 | 1.7 | 0.25 | 0.26 | 0.26 | 74 | 1012.3 |
| 20260905215215 | 73 | 66 | 0.0 | 1.7 | 0.25 | 0.26 | 0.26 | 75 | 1012.4 |
| 20260905215115 | 73 | 66 | 0.0 | 1.7 | 0.25 | 0.26 | 0.26 | 75 | 1012.4 |
| 20260905215013 | 73 | 66 | 0.9 | 2.6 | 0.25 | 0.26 | 0.26 | 75 | 1012.3 |
| 20260905214916 | 73 | 66 | 0.9 | 2.6 | 0.25 | 0.26 | 0.26 | 75 | 1012.3 |
| 20260905214813 | 73 | 66 | 0.9 | 2.6 | 0.25 | 0.26 | 0.26 | 75 | 1012.2 |
| 20260905214713 | 73 | 73 | 0.9 | 2.6 | 0.25 | 0.26 | 0.26 | 75 | 1012.2 |
| 20260905214609 | 74 | 104 | 0.9 | 2.6 | 0.25 | 0.26 | 0.26 | 75 | 1012.2 |
| 20260905214512 | 74 | 127 | 1.7 | 2.6 | 0.25 | 0.26 | 0.26 | 76 | 1012.1 |
| 20260905214404 | 74 | 127 | 1.7 | 3.5 | 0.25 | 0.26 | 0.26 | 75 | 1012.0 |
| 20260905214309 | 74 | 127 | 1.7 | 3.5 | 0.25 | 0.26 | 0.26 | 74 | 1012.0 |
| 20260905214203 | 74 | 139 | 1.7 | 4.3 | 0.25 | 0.26 | 0.26 | 74 | 1012.0 |
| 20260905214103 | 74 | 166 | 2.6 | 4.3 | 0.25 | 0.26 | 0.26 | 74 | 1011.9 |
| 20260905214000 | 74 | 170 | 2.6 | 8.7 | 0.25 | 0.26 | 0.26 | 75 | 1011.9 |
| 20260905213901 | 74 | 203 | 2.6 | 8.7 | 0.25 | 0.26 | 0.26 | 76 | 1011.9 |
| 20260905213759 | 74 | 194 | 2.6 | 8.7 | 0.25 | 0.26 | 0.26 | 77 | 1012.0 |
| 20260905213658 | 75 | 337 | 2.6 | 8.7 | 0.25 | 0.26 | 0.26 | 76 | 1012.1 |
| 20260905213553 | 75 | 302 | 2.6 | 8.7 | 0.25 | 0.26 | 0.26 | 77 | 1012.2 |
| 20260905213454 | 75 | 328 | 1.7 | 8.7 | 0.25 | 0.26 | 0.26 | 77 | 1012.4 |
| 20260905213352 | 76 | 150 | 1.7 | 8.7 | 0.25 | 0.26 | 0.26 | 77 | 1012.4 |
| 20260905213252 | 76 | 107 | 1.7 | 8.7 | 0.25 | 0.26 | 0.26 | 77 | 1012.4 |
| 20260905213148 | 76 | 83 | 1.7 | 8.7 | 0.25 | 0.26 | 0.26 | 77 | 1012.3 |
| 20260905213048 | 77 | 124 | 1.7 | 8.7 | 0.25 | 0.26 | 0.26 | 77 | 1012.3 |
| 20260905212947 | 77 | 180 | 1.7 | 5.2 | 0.25 | 0.26 | 0.26 | 77 | 1012.3 |
| 20260905212847 | 77 | 180 | 2.6 | 10.4 | 0.25 | 0.26 | 0.26 | 77 | 1012.3 |
| 20260905212754 | 78 | 180 | 3.5 | 13.0 | 0.25 | 0.26 | 0.26 | 77 | 1012.3 |
| 20260905212648 | 78 | 180 | 3.5 | 13.0 | 0.25 | 0.26 | 0.26 | 76 | 1012.3 |
| 20260905212545 | 79 | 180 | 4.3 | 15.6 | 0.25 | 0.26 | 0.26 | 77 | 1012.4 |
| 20260905212444 | 79 | 180 | 4.3 | 15.6 | 0.24 | 0.25 | 0.26 | 77 | 1012.4 |
| 20260905212348 | 80 | 180 | 4.3 | 15.6 | 0.24 | 0.25 | 0.25 | 76 | 1012.4 |
| 20260905212243 | 80 | 180 | 4.3 | 15.6 | 0.23 | 0.24 | 0.25 | 76 | 1012.4 |
| 20260905212141 | 81 | 180 | 4.3 | 15.6 | 0.22 | 0.23 | 0.24 | 76 | 1012.4 |
| 20260905212040 | 82 | 180 | 4.3 | 15.6 | 0.19 | 0.20 | 0.23 | 76 | 1012.4 |
| 20260905211938 | 82 | 163 | 3.5 | 15.6 | 0.17 | 0.18 | 0.20 | 76 | 1012.4 |
| 20260905211837 | 83 | 104 | 2.6 | 15.6 | 0.17 | 0.18 | 0.18 | 76 | 1012.2 |
| 20260905211739 | 84 | 88 | 2.6 | 15.6 | 0.15 | 0.16 | 0.16 | 76 | 1012.1 |
| 20260905211639 | 84 | 64 | 1.7 | 15.6 | 0.11 | 0.12 | 0.14 | 76 | 1011.9 |
| 20260905211540 | 85 | 88 | 1.7 | 5.2 | 0.07 | 0.08 | 0.09 | 76 | 1011.9 |
| 20260905211437 | 85 | 110 | 0.9 | 5.2 | 0.04 | 0.05 | 0.06 | 75 | 1011.9 |
| 20260905211339 | 85 | 141 | 1.7 | 5.2 | 0.03 | 0.04 | 0.04 | 75 | 1011.8 |
| 20260905211238 | 85 | 151 | 1.7 | 5.2 | 0.02 | 0.03 | 0.03 | 75 | 1011.7 |
| 20260905211138 | 85 | 175 | 1.7 | 5.2 | 0.01 | 0.02 | 0.03 | 75 | 1011.7 |
| 20260905211036 | 86 | 166 | 1.7 | 5.2 | 0.01 | 0.02 | 0.02 | 75 | 1011.6 |
| 20260905210938 | 86 | 229 | 1.7 | 5.2 | 0.01 | 0.02 | 0.02 | 75 | 1011.6 |
| 20260905210833 | 86 | 213 | 1.7 | 5.2 | 0.01 | 0.02 | 0.02 | 74 | 1011.5 |
| 20260905210741 | 87 | 213 | 1.7 | 5.2 | 0.01 | 0.02 | 0.02 | 73 | 1011.5 |
| 20260905210636 | 87 | 175 | 1.7 | 5.2 | 0.01 | 0.02 | 0.02 | 73 | 1011.5 |
| 20260905210549 | 87 | 199 | 1.7 | 5.2 | 0.00 | 0.01 | 0.02 | 73 | 1011.4 |
| 20260905210442 | 87 | 196 | 1.7 | 5.2 | 0.00 | 0.01 | 0.01 | 72 | 1011.5 |
| 20260905210346 | 87 | 203 | 1.7 | 5.2 | 0.00 | 0.01 | 0.01 | 73 | 1011.5 |
| 20260905210239 | 88 | 204 | 1.7 | 5.2 | 0.00 | 0.01 | 0.01 | 74 | 1011.4 |
| 20260905210133 | 88 | 222 | 2.6 | 6.1 | 0.00 | 0.01 | 0.01 | 73 | 1011.5 |
| 20260905210031 | 88 | 199 | 2.6 | 6.1 | 0.00 | 0.01 | 0.01 | 72 | 1011.4 |
| 20260905205934 | 88 | 189 | 2.6 | 6.1 | 0.00 | 0.01 | 0.01 | 72 | 1011.4 |
| 20260905205831 | 88 | 258 | 2.6 | 6.1 | 0.00 | 0.01 | 0.01 | 68 | 1011.4 |
| 20260905205731 | 88 | 189 | 1.7 | 6.1 | 0.00 | 0.01 | 0.01 | 69 | 1011.5 |
| 20260905205630 | 88 | 147 | 1.7 | 6.1 | 0.00 | 0.01 | 0.01 | 72 | 1011.5 |
| 20260905205532 | 88 | 77 | 1.7 | 6.1 | 0.00 | 0.01 | 0.01 | 71 | 1011.6 |
| 20260905205424 | 89 | 206 | 1.7 | 6.1 | 0.00 | 0.01 | 0.01 | 72 | 1011.6 |
| 20260905205324 | 88 | 76 | 2.6 | 6.1 | 0.00 | 0.01 | 0.01 | 69 | 1011.6 |
| 20260905205221 | 88 | 151 | 2.6 | 8.7 | 0.00 | 0.01 | 0.01 | 70 | 1011.6 |
| 20260905205120 | 89 | 147 | 2.6 | 8.7 | 0.00 | 0.01 | 0.01 | 70 | 1011.7 |
| 20260905205017 | 88 | 142 | 2.6 | 8.7 | 0.00 | 0.01 | 0.01 | 70 | 1011.6 |
| 20260905204919 | 88 | 260 | 2.6 | 8.7 | 0.00 | 0.01 | 0.01 | 70 | 1011.7 |
| 20260905204817 | 88 | 137 | 2.6 | 8.7 | 0.00 | 0.01 | 0.01 | 69 | 1011.7 |
| 20260905204718 | 88 | 14 | 3.5 | 8.7 | 0.00 | 0.01 | 0.01 | 69 | 1011.8 |
| 20260905204617 | 88 | 102 | 3.5 | 8.7 | 0.00 | 0.01 | 0.01 | 70 | 1011.8 |
| 20260905204518 | 88 | 95 | 3.5 | 8.7 | 0.00 | 0.01 | 0.01 | 68 | 1011.8 |
| 20260905204422 | 88 | 141 | 4.3 | 8.7 | 0.00 | 0.01 | 0.01 | 69 | 1011.8 |
| 20260905204319 | 88 | 139 | 4.3 | 8.7 | 0.00 | 0.01 | 0.01 | 69 | 1011.8 |
| 20260905204217 | 88 | 105 | 4.3 | 7.8 | 0.00 | 0.01 | 0.01 | 69 | 1011.8 |
| 20260905204118 | 88 | 110 | 4.3 | 7.8 | 0.00 | 0.01 | 0.01 | 68 | 1011.8 |
| 20260905204018 | 88 | 158 | 4.3 | 7.8 | 0.00 | 0.01 | 0.01 | 69 | 1011.9 |
| 20260905203917 | 88 | 104 | 4.3 | 7.8 | 0.00 | 0.01 | 0.01 | 69 | 1011.9 |
| 20260905203817 | 88 | 123 | 4.3 | 7.8 | 0.00 | 0.01 | 0.01 | 68 | 1011.9 |
| 20260905203719 | 88 | 106 | 3.5 | 7.0 | 0.00 | 0.01 | 0.01 | 69 | 1011.9 |
| 20260905203619 | 88 | 107 | 3.5 | 7.0 | 0.00 | 0.01 | 0.01 | 68 | 1011.9 |
| 20260905203517 | 88 | 91 | 3.5 | 7.0 | 0.00 | 0.01 | 0.01 | 68 | 1011.9 |
| 20260905203419 | 88 | 126 | 3.5 | 7.0 | 0.00 | 0.01 | 0.01 | 70 | 1011.9 |
| 20260905203317 | 88 | 100 | 3.5 | 6.1 | 0.00 | 0.01 | 0.01 | 68 | 1011.9 |
| 20260905203217 | 88 | 153 | 2.6 | 6.1 | 0.00 | 0.01 | 0.01 | 70 | 1011.9 |
| 20260905203118 | 88 | 180 | 3.5 | 7.8 | 0.00 | 0.01 | 0.01 | 69 | 1011.9 |
| 20260905203019 | 88 | 103 | 2.6 | 7.8 | 0.00 | 0.01 | 0.01 | 71 | 1012.0 |
| 20260905202917 | 88 | 152 | 2.6 | 7.8 | 0.00 | 0.01 | 0.01 | 70 | 1012.0 |
| 20260905202818 | 88 | 104 | 2.6 | 7.8 | 0.00 | 0.01 | 0.01 | 70 | 1012.0 |
| 20260905202717 | 88 | 147 | 2.6 | 7.8 | 0.00 | 0.01 | 0.01 | 71 | 1012.1 |
| 20260905202617 | 88 | 110 | 2.6 | 7.8 | 0.00 | 0.01 | 0.01 | 72 | 1012.1 |
| 20260905202520 | 88 | 96 | 2.6 | 7.8 | 0.00 | 0.01 | 0.01 | 71 | 1012.1 |
| 20260905202419 | 88 | 116 | 3.5 | 7.8 | 0.00 | 0.01 | 0.01 | 70 | 1012.0 |
| 20260905202319 | 88 | 125 | 3.5 | 7.8 | 0.00 | 0.01 | 0.01 | 69 | 1012.1 |
| 20260905202218 | 88 | 156 | 3.5 | 7.8 | 0.00 | 0.01 | 0.01 | 68 | 1012.0 |
| 20260905202117 | 88 | 116 | 3.5 | 9.6 | 0.00 | 0.01 | 0.01 | 70 | 1012.1 |
| 20260905202017 | 88 | 150 | 3.5 | 9.6 | 0.00 | 0.01 | 0.01 | 70 | 1012.1 |
| 20260905201917 | 88 | 108 | 3.5 | 9.6 | 0.00 | 0.01 | 0.01 | 68 | 1012.1 |
| 20260905201818 | 88 | 95 | 3.5 | 9.6 | 0.00 | 0.01 | 0.01 | 67 | 1012.1 |
| 20260905201718 | 89 | 168 | 3.5 | 9.6 | 0.00 | 0.01 | 0.01 | 68 | 1012.2 |
| 20260905201617 | 89 | 77 | 2.6 | 9.6 | 0.00 | 0.01 | 0.01 | 67 | 1012.2 |
| 20260905201517 | 89 | 112 | 2.6 | 9.6 | 0.00 | 0.01 | 0.01 | 68 | 1012.2 |
| 20260905201418 | 89 | 115 | 2.6 | 9.6 | 0.00 | 0.01 | 0.01 | 68 | 1012.2 |
| 20260905201316 | 89 | 115 | 1.7 | 9.6 | 0.00 | 0.01 | 0.01 | 67 | 1012.2 |
| 20260905201220 | 89 | 102 | 1.7 | 9.6 | 0.00 | 0.01 | 0.01 | 68 | 1012.3 |
| 20260905201117 | 89 | 95 | 0.9 | 4.3 | 0.00 | 0.01 | 0.01 | 70 | 1012.3 |
| 20260905201018 | 89 | 137 | 0.9 | 5.2 | 0.00 | 0.01 | 0.01 | 68 | 1012.3 |
| 20260905200919 | 89 | 111 | 0.9 | 5.2 | 0.00 | 0.01 | 0.01 | 68 | 1012.3 |
| 20260905200818 | 89 | 88 | 0.9 | 5.2 | 0.00 | 0.01 | 0.01 | 68 | 1012.3 |
| 20260905200717 | 89 | 75 | 0.9 | 5.2 | 0.00 | 0.01 | 0.01 | 71 | 1012.2 |
| 20260905200617 | 89 | 338 | 0.9 | 5.2 | 0.00 | 0.01 | 0.01 | 69 | 1012.2 |
| 20260905200520 | 89 | 106 | 1.7 | 5.2 | 0.00 | 0.01 | 0.01 | 69 | 1012.3 |
| 20260905200416 | 88 | 106 | 1.7 | 5.2 | 0.00 | 0.01 | 0.01 | 68 | 1012.3 |
| 20260905200317 | 88 | 64 | 1.7 | 5.2 | 0.00 | 0.01 | 0.01 | 68 | 1012.3 |
| 20260905200220 | 88 | 151 | 1.7 | 5.2 | 0.00 | 0.01 | 0.01 | 70 | 1012.3 |
| 20260905200117 | 88 | 48 | 1.7 | 6.1 | 0.00 | 0.01 | 0.01 | 69 | 1012.3 |
| 20260905200017 | 88 | 55 | 1.7 | 6.1 | 0.00 | 0.01 | 0.01 | 70 | 1012.3 |
| 20260905195916 | 88 | 74 | 2.6 | 7.0 | 0.00 | 0.01 | 0.01 | 68 | 1012.3 |
| 20260905195817 | 88 | 85 | 2.6 | 7.0 | 0.00 | 0.01 | 0.01 | 69 | 1012.3 |
| 20260905195718 | 88 | 79 | 2.6 | 7.0 | 0.00 | 0.01 | 0.01 | 69 | 1012.4 |
| 20260905195619 | 88 | 101 | 2.6 | 7.0 | 0.00 | 0.01 | 0.01 | 69 | 1012.4 |
| 20260905195518 | 88 | 86 | 2.6 | 7.0 | 0.00 | 0.01 | 0.01 | 68 | 1012.4 |
| 20260905195417 | 88 | 82 | 2.6 | 7.0 | 0.00 | 0.01 | 0.01 | 67 | 1012.4 |
| 20260905195318 | 88 | 97 | 2.6 | 7.0 | 0.00 | 0.01 | 0.01 | 67 | 1012.4 |
| 20260905195217 | 88 | 129 | 2.6 | 7.0 | 0.00 | 0.01 | 0.01 | 68 | 1012.4 |
| 20260905195118 | 88 | 117 | 2.6 | 7.0 | 0.00 | 0.01 | 0.01 | 68 | 1012.4 |
| 20260905195017 | 88 | 85 | 2.6 | 7.0 | 0.00 | 0.01 | 0.01 | 68 | 1012.4 |
| 20260905194917 | 88 | 87 | 2.6 | 7.0 | 0.00 | 0.01 | 0.01 | 69 | 1012.4 |
| 20260905194822 | 88 | 101 | 2.6 | 7.0 | 0.00 | 0.01 | 0.01 | 69 | 1012.4 |
| 20260905194718 | 88 | 102 | 2.6 | 7.0 | 0.00 | 0.01 | 0.01 | 71 | 1012.4 |
| 20260905194621 | 88 | 81 | 2.6 | 7.0 | 0.00 | 0.01 | 0.01 | 69 | 1012.6 |
| 20260905194521 | 88 | 101 | 2.6 | 7.0 | 0.00 | 0.01 | 0.01 | 68 | 1012.6 |
| 20260905194419 | 88 | 54 | 1.7 | 7.0 | 0.00 | 0.01 | 0.01 | 69 | 1012.6 |
| 20260905194318 | 88 | 4 | 1.7 | 7.0 | 0.00 | 0.01 | 0.01 | 69 | 1012.6 |
| 20260905194217 | 88 | 58 | 1.7 | 7.0 | 0.00 | 0.01 | 0.01 | 69 | 1012.6 |
| 20260905194117 | 88 | 39 | 1.7 | 5.2 | 0.00 | 0.01 | 0.01 | 68 | 1012.6 |
| 20260905194018 | 88 | 59 | 1.7 | 4.3 | 0.00 | 0.01 | 0.01 | 69 | 1012.6 |
| 20260905193928 | 87 | 73 | 1.7 | 6.1 | 0.00 | 0.01 | 0.01 | 68 | 1012.7 |
| 20260905193818 | 87 | 73 | 1.7 | 6.1 | 0.00 | 0.01 | 0.01 | 68 | 1012.7 |
| 20260905193717 | 87 | 79 | 1.7 | 6.1 | 0.00 | 0.01 | 0.01 | 68 | 1012.7 |
| 20260905193622 | 87 | 115 | 1.7 | 6.1 | 0.00 | 0.01 | 0.01 | 68 | 1012.7 |
| 20260905193518 | 87 | 80 | 1.7 | 6.1 | 0.00 | 0.01 | 0.01 | 69 | 1012.7 |
| 20260905193418 | 87 | 69 | 2.6 | 6.1 | 0.00 | 0.01 | 0.01 | 69 | 1012.7 |
| 20260905193324 | 87 | 75 | 2.6 | 6.1 | 0.00 | 0.01 | 0.01 | 67 | 1012.7 |
| 20260905193217 | 87 | 105 | 2.6 | 7.0 | 0.00 | 0.01 | 0.01 | 68 | 1012.7 |
| 20260905193122 | 87 | 103 | 2.6 | 7.0 | 0.00 | 0.01 | 0.01 | 69 | 1012.7 |
| 20260905193017 | 87 | 110 | 2.6 | 7.0 | 0.00 | 0.01 | 0.01 | 67 | 1012.7 |
| 20260905192917 | 87 | 60 | 2.6 | 7.0 | 0.00 | 0.01 | 0.01 | 68 | 1012.7 |
| 20260905192820 | 87 | 101 | 2.6 | 7.0 | 0.00 | 0.01 | 0.01 | 68 | 1012.7 |
| 20260905192718 | 87 | 143 | 2.6 | 7.0 | 0.00 | 0.01 | 0.01 | 68 | 1012.7 |
| 20260905192618 | 87 | 62 | 2.6 | 7.0 | 0.00 | 0.01 | 0.01 | 68 | 1012.8 |
| 20260905192517 | 87 | 89 | 3.5 | 7.0 | 0.00 | 0.01 | 0.01 | 68 | 1012.8 |
| 20260905192417 | 87 | 93 | 2.6 | 7.0 | 0.00 | 0.01 | 0.01 | 68 | 1012.8 |
| 20260905192318 | 87 | 115 | 2.6 | 7.0 | 0.00 | 0.01 | 0.01 | 68 | 1012.9 |
| 20260905192217 | 87 | 109 | 2.6 | 6.1 | 0.00 | 0.01 | 0.01 | 69 | 1012.9 |
| 20260905192118 | 87 | 67 | 2.6 | 6.1 | 0.00 | 0.01 | 0.01 | 68 | 1012.9 |
| 20260905192018 | 87 | 123 | 2.6 | 6.1 | 0.00 | 0.01 | 0.01 | 68 | 1012.9 |
| 20260905191920 | 87 | 95 | 2.6 | 6.1 | 0.00 | 0.01 | 0.01 | 69 | 1012.8 |
| 20260905191818 | 87 | 101 | 2.6 | 6.1 | 0.00 | 0.01 | 0.01 | 68 | 1012.9 |
| 20260905191717 | 87 | 93 | 2.6 | 7.0 | 0.00 | 0.01 | 0.01 | 68 | 1012.9 |
| 20260905191618 | 87 | 132 | 2.6 | 7.0 | 0.00 | 0.01 | 0.01 | 68 | 1012.9 |
| 20260905191519 | 87 | 93 | 1.7 | 8.7 | 0.00 | 0.01 | 0.01 | 69 | 1012.9 |
| 20260905191417 | 87 | 99 | 1.7 | 8.7 | 0.00 | 0.01 | 0.01 | 68 | 1012.8 |
| 20260905191317 | 87 | 87 | 1.7 | 8.7 | 0.00 | 0.01 | 0.01 | 67 | 1012.9 |
| 20260905191218 | 87 | 262 | 1.7 | 8.7 | 0.00 | 0.01 | 0.01 | 69 | 1012.9 |
| 20260905191118 | 87 | 26 | 2.6 | 8.7 | 0.00 | 0.01 | 0.01 | 68 | 1012.8 |
| 20260905191018 | 87 | 68 | 2.6 | 8.7 | 0.00 | 0.01 | 0.01 | 67 | 1012.9 |
| 20260905190917 | 87 | 13 | 1.7 | 8.7 | 0.00 | 0.01 | 0.01 | 68 | 1012.9 |
| 20260905190816 | 87 | 54 | 1.7 | 8.7 | 0.00 | 0.01 | 0.01 | 68 | 1012.9 |
| 20260905190718 | 87 | 38 | 1.7 | 8.7 | 0.00 | 0.01 | 0.01 | 69 | 1013.0 |
| 20260905190617 | 87 | 56 | 1.7 | 8.7 | 0.00 | 0.01 | 0.01 | 69 | 1013.0 |
| 20260905190519 | 87 | 75 | 1.7 | 6.1 | 0.00 | 0.01 | 0.01 | 68 | 1013.0 |
| 20260905190417 | 87 | 335 | 0.9 | 6.1 | 0.00 | 0.01 | 0.01 | 68 | 1013.0 |
| 20260905190318 | 87 | 69 | 0.9 | 6.1 | 0.00 | 0.01 | 0.01 | 68 | 1013.0 |
| 20260905190218 | 87 | 308 | 0.9 | 6.1 | 0.00 | 0.01 | 0.01 | 70 | 1013.1 |
| 20260905190119 | 87 | 94 | 0.9 | 3.5 | 0.00 | 0.01 | 0.01 | 69 | 1013.0 |
| 20260905190017 | 87 | 29 | 0.9 | 3.5 | 0.00 | 0.01 | 0.01 | 69 | 1013.0 |
| 20260905185917 | 87 | 345 | 0.9 | 3.5 | 0.00 | 0.01 | 0.01 | 68 | 1013.0 |
| 20260905185718 | 87 | 70 | 0.9 | 4.3 | 0.00 | 0.01 | 0.01 | 68 | 1013.1 |
| 20260905185617 | 87 | 91 | 0.9 | 4.3 | 0.00 | 0.01 | 0.01 | 68 | 1013.0 |
| 20260905185517 | 87 | 25 | 0.9 | 4.3 | 0.00 | 0.01 | 0.01 | 69 | 1013.0 |
| 20260905185418 | 87 | 34 | 0.9 | 4.3 | 0.00 | 0.01 | 0.01 | 68 | 1013.0 |
| 20260905185319 | 87 | 82 | 0.9 | 4.3 | 0.00 | 0.01 | 0.01 | 69 | 1013.0 |
| 20260905185219 | 87 | 14 | 0.9 | 4.3 | 0.00 | 0.01 | 0.01 | 68 | 1013.0 |
| 20260905185117 | 87 | 347 | 0.9 | 4.3 | 0.00 | 0.01 | 0.01 | 67 | 1013.1 |
| 20260905185014 | 87 | 45 | 1.7 | 4.3 | 0.00 | 0.01 | 0.01 | 67 | 1013.0 |
| 20260905184913 | 87 | 93 | 1.7 | 4.3 | 0.00 | 0.01 | 0.01 | 67 | 1013.1 |
| 20260905184816 | 87 | 19 | 1.7 | 5.2 | 0.00 | 0.01 | 0.01 | 67 | 1013.1 |
| 20260905184708 | 87 | 81 | 1.7 | 5.2 | 0.00 | 0.01 | 0.01 | 67 | 1013.1 |
| 20260905184606 | 87 | 312 | 1.7 | 5.2 | 0.00 | 0.01 | 0.01 | 67 | 1013.2 |
| 20260905184507 | 87 | 38 | 2.6 | 5.2 | 0.00 | 0.01 | 0.01 | 67 | 1013.2 |
| 20260905184404 | 87 | 358 | 2.6 | 7.0 | 0.00 | 0.01 | 0.01 | 68 | 1013.2 |
| 20260905184306 | 87 | 115 | 2.6 | 7.0 | 0.00 | 0.01 | 0.01 | 70 | 1013.2 |
| 20260905184203 | 87 | 87 | 2.6 | 7.0 | 0.00 | 0.01 | 0.01 | 70 | 1013.2 |
| 20260905184104 | 86 | 81 | 2.6 | 7.0 | 0.00 | 0.01 | 0.01 | 68 | 1013.3 |
| 20260905183958 | 86 | 135 | 2.6 | 7.0 | 0.00 | 0.01 | 0.01 | 69 | 1013.3 |
| 20260905183854 | 86 | 105 | 3.5 | 7.0 | 0.00 | 0.01 | 0.01 | 69 | 1013.3 |
| 20260905183755 | 86 | 76 | 2.6 | 7.0 | 0.00 | 0.01 | 0.01 | 70 | 1013.2 |
| 20260905183653 | 86 | 89 | 2.6 | 7.0 | 0.00 | 0.01 | 0.01 | 68 | 1013.3 |
| 20260905183553 | 86 | 45 | 2.6 | 7.0 | 0.00 | 0.01 | 0.01 | 69 | 1013.3 |
| 20260905183452 | 86 | 122 | 2.6 | 7.0 | 0.00 | 0.01 | 0.01 | 68 | 1013.2 |
| 20260905183350 | 86 | 106 | 1.7 | 7.0 | 0.00 | 0.01 | 0.01 | 69 | 1013.2 |
| 20260905183252 | 86 | 95 | 1.7 | 6.1 | 0.00 | 0.01 | 0.01 | 69 | 1013.3 |
| 20260905183147 | 86 | 75 | 1.7 | 6.1 | 0.00 | 0.01 | 0.01 | 71 | 1013.3 |
| 20260905183047 | 86 | 90 | 2.6 | 6.1 | 0.00 | 0.01 | 0.01 | 69 | 1013.4 |
| 20260905182947 | 86 | 118 | 1.7 | 6.1 | 0.00 | 0.01 | 0.01 | 70 | 1013.4 |
| 20260905182845 | 86 | 112 | 1.7 | 6.1 | 0.00 | 0.01 | 0.01 | 69 | 1013.4 |
| 20260905182746 | 86 | 170 | 1.7 | 5.2 | 0.00 | 0.01 | 0.01 | 69 | 1013.5 |
| 20260905182645 | 86 | 23 | 2.6 | 5.2 | 0.00 | 0.01 | 0.01 | 68 | 1013.5 |
| 20260905182544 | 86 | 58 | 2.6 | 6.1 | 0.00 | 0.01 | 0.01 | 68 | 1013.5 |
| 20260905182447 | 86 | 91 | 2.6 | 7.0 | 0.00 | 0.01 | 0.01 | 67 | 1013.5 |
| 20260905182342 | 86 | 351 | 2.6 | 7.0 | 0.00 | 0.01 | 0.01 | 70 | 1013.5 |
| 20260905182243 | 86 | 99 | 2.6 | 7.0 | 0.00 | 0.01 | 0.01 | 68 | 1013.4 |
| 20260905182143 | 86 | 111 | 2.6 | 7.0 | 0.00 | 0.01 | 0.01 | 67 | 1013.5 |
| 20260905182044 | 86 | 135 | 2.6 | 7.0 | 0.00 | 0.01 | 0.01 | 67 | 1013.5 |
| 20260905181939 | 86 | 83 | 1.7 | 7.0 | 0.00 | 0.01 | 0.01 | 66 | 1013.5 |
| 20260905181838 | 86 | 347 | 1.7 | 7.0 | 0.00 | 0.01 | 0.01 | 69 | 1013.5 |
| 20260905181736 | 86 | 100 | 2.6 | 7.0 | 0.00 | 0.01 | 0.01 | 68 | 1013.5 |
| 20260905181636 | 86 | 146 | 2.6 | 7.0 | 0.00 | 0.01 | 0.01 | 69 | 1013.5 |
| 20260905181536 | 86 | 49 | 2.6 | 8.7 | 0.00 | 0.01 | 0.01 | 69 | 1013.5 |
| 20260905181434 | 86 | 175 | 2.6 | 8.7 | 0.00 | 0.01 | 0.01 | 69 | 1013.4 |
| 20260905181334 | 86 | 94 | 2.6 | 8.7 | 0.00 | 0.01 | 0.01 | 70 | 1013.5 |
| 20260905181239 | 86 | 77 | 2.6 | 8.7 | 0.00 | 0.01 | 0.01 | 70 | 1013.5 |
| 20260905181136 | 85 | 319 | 2.6 | 8.7 | 0.00 | 0.01 | 0.01 | 70 | 1013.5 |
| 20260905181033 | 85 | 52 | 3.5 | 8.7 | 0.00 | 0.01 | 0.01 | 70 | 1013.5 |
| 20260905180933 | 85 | 121 | 3.5 | 8.7 | 0.00 | 0.01 | 0.01 | 70 | 1013.5 |
| 20260905180833 | 85 | 79 | 3.5 | 8.7 | 0.00 | 0.01 | 0.01 | 68 | 1013.6 |
| 20260905180736 | 85 | 99 | 3.5 | 8.7 | 0.00 | 0.01 | 0.01 | 70 | 1013.6 |
| 20260905180634 | 85 | 90 | 3.5 | 8.7 | 0.00 | 0.01 | 0.01 | 69 | 1013.5 |
| 20260905180533 | 85 | 80 | 2.6 | 8.7 | 0.00 | 0.01 | 0.01 | 70 | 1013.6 |
| 20260905180433 | 85 | 109 | 2.6 | 7.8 | 0.00 | 0.01 | 0.01 | 69 | 1013.6 |
| 20260905180332 | 85 | 193 | 2.6 | 8.7 | 0.00 | 0.01 | 0.01 | 69 | 1013.5 |
| 20260905180232 | 85 | 334 | 2.6 | 8.7 | 0.00 | 0.01 | 0.01 | 70 | 1013.6 |
| 20260905180130 | 85 | 60 | 2.6 | 8.7 | 0.00 | 0.01 | 0.01 | 71 | 1013.6 |
| 20260905180026 | 85 | 108 | 2.6 | 8.7 | 0.00 | 0.01 | 0.01 | 68 | 1013.6 |
| 20260905175928 | 85 | 79 | 2.6 | 8.7 | 0.00 | 0.01 | 0.01 | 68 | 1013.5 |
| 20260905175828 | 85 | 356 | 2.6 | 8.7 | 0.00 | 0.01 | 0.01 | 69 | 1013.5 |
| 20260905175725 | 85 | 129 | 2.6 | 8.7 | 0.00 | 0.01 | 0.01 | 69 | 1013.5 |
| 20260905175626 | 85 | 77 | 2.6 | 8.7 | 0.00 | 0.01 | 0.01 | 69 | 1013.5 |
| 20260905175525 | 85 | 91 | 2.6 | 8.7 | 0.00 | 0.01 | 0.01 | 68 | 1013.6 |
| 20260905175422 | 85 | 28 | 2.6 | 8.7 | 0.00 | 0.01 | 0.01 | 68 | 1013.6 |
| 20260905175319 | 85 | 133 | 2.6 | 7.8 | 0.00 | 0.01 | 0.01 | 68 | 1013.6 |
| 20260905175218 | 85 | 72 | 2.6 | 7.8 | 0.00 | 0.01 | 0.01 | 69 | 1013.6 |
| 20260905175116 | 85 | 126 | 2.6 | 7.0 | 0.00 | 0.01 | 0.01 | 69 | 1013.5 |
| 20260905175016 | 85 | 17 | 2.6 | 7.0 | 0.00 | 0.01 | 0.01 | 69 | 1013.5 |
| 20260905174912 | 85 | 97 | 2.6 | 7.0 | 0.00 | 0.01 | 0.01 | 70 | 1013.5 |
| 20260905174814 | 85 | 95 | 2.6 | 7.0 | 0.00 | 0.01 | 0.01 | 69 | 1013.6 |
| 20260905174707 | 85 | 348 | 2.6 | 7.8 | 0.00 | 0.01 | 0.01 | 69 | 1013.6 |
| 20260905174609 | 85 | 84 | 2.6 | 7.8 | 0.00 | 0.01 | 0.01 | 69 | 1013.6 |
| 20260905174507 | 85 | 85 | 2.6 | 7.8 | 0.00 | 0.01 | 0.01 | 69 | 1013.6 |
| 20260905174406 | 85 | 94 | 2.6 | 7.8 | 0.00 | 0.01 | 0.01 | 70 | 1013.5 |
| 20260905174304 | 85 | 121 | 1.7 | 7.8 | 0.00 | 0.01 | 0.01 | 69 | 1013.5 |
| 20260905174207 | 85 | 106 | 1.7 | 7.8 | 0.00 | 0.01 | 0.01 | 72 | 1013.6 |
| 20260905174107 | 85 | 4 | 1.7 | 7.8 | 0.00 | 0.01 | 0.01 | 72 | 1013.6 |
| 20260905174006 | 85 | 72 | 1.7 | 7.8 | 0.00 | 0.01 | 0.01 | 70 | 1013.6 |
| 20260905173903 | 84 | 117 | 1.7 | 7.8 | 0.00 | 0.01 | 0.01 | 69 | 1013.5 |
| 20260905173805 | 84 | 50 | 1.7 | 7.8 | 0.00 | 0.01 | 0.01 | 69 | 1013.5 |
| 20260905173702 | 84 | 68 | 0.9 | 5.2 | 0.00 | 0.01 | 0.01 | 70 | 1013.5 |
| 20260905173601 | 84 | 214 | 1.7 | 5.2 | 0.00 | 0.01 | 0.01 | 70 | 1013.5 |
| 20260905173503 | 84 | 18 | 1.7 | 5.2 | 0.00 | 0.01 | 0.01 | 70 | 1013.5 |
| 20260905173402 | 84 | 87 | 1.7 | 5.2 | 0.00 | 0.01 | 0.01 | 70 | 1013.5 |
| 20260905173301 | 84 | 12 | 1.7 | 5.2 | 0.00 | 0.01 | 0.01 | 69 | 1013.5 |
| 20260905173206 | 84 | 58 | 1.7 | 6.1 | 0.00 | 0.01 | 0.01 | 70 | 1013.5 |
| 20260905173101 | 84 | 339 | 1.7 | 6.1 | 0.00 | 0.01 | 0.01 | 70 | 1013.5 |
| 20260905173002 | 84 | 66 | 2.6 | 6.1 | 0.00 | 0.01 | 0.01 | 71 | 1013.5 |
| 20260905172905 | 84 | 67 | 2.6 | 9.6 | 0.00 | 0.01 | 0.01 | 72 | 1013.5 |
| 20260905172802 | 84 | 63 | 2.6 | 9.6 | 0.00 | 0.01 | 0.01 | 72 | 1013.6 |
| 20260905172702 | 84 | 78 | 2.6 | 9.6 | 0.00 | 0.01 | 0.01 | 71 | 1013.5 |
| 20260905172559 | 84 | 70 | 2.6 | 9.6 | 0.00 | 0.01 | 0.01 | 72 | 1013.6 |
| 20260905172456 | 84 | 91 | 2.6 | 9.6 | 0.00 | 0.01 | 0.01 | 72 | 1013.6 |
| 20260905172358 | 84 | 222 | 2.6 | 9.6 | 0.00 | 0.01 | 0.01 | 71 | 1013.6 |
| 20260905172256 | 84 | 341 | 1.7 | 9.6 | 0.00 | 0.01 | 0.01 | 71 | 1013.6 |
| 20260905172152 | 83 | 20 | 1.7 | 9.6 | 0.00 | 0.01 | 0.01 | 71 | 1013.6 |
| 20260905172054 | 83 | 201 | 1.7 | 9.6 | 0.00 | 0.01 | 0.01 | 71 | 1013.6 |
| 20260905171957 | 83 | 90 | 1.7 | 9.6 | 0.00 | 0.01 | 0.01 | 72 | 1013.6 |
| 20260905171856 | 83 | 102 | 0.9 | 7.0 | 0.00 | 0.01 | 0.01 | 71 | 1013.6 |
| 20260905171753 | 83 | 342 | 0.9 | 4.3 | 0.00 | 0.01 | 0.01 | 71 | 1013.6 |
| 20260905171653 | 83 | 123 | 1.7 | 5.2 | 0.00 | 0.01 | 0.01 | 72 | 1013.6 |
| 20260905171554 | 83 | 55 | 1.7 | 6.1 | 0.00 | 0.01 | 0.01 | 70 | 1013.6 |
| 20260905171456 | 83 | 143 | 1.7 | 6.1 | 0.00 | 0.01 | 0.01 | 70 | 1013.6 |
| 20260905171357 | 83 | 32 | 1.7 | 6.1 | 0.00 | 0.01 | 0.01 | 71 | 1013.6 |
| 20260905171254 | 83 | 26 | 1.7 | 6.1 | 0.00 | 0.01 | 0.01 | 71 | 1013.6 |
| 20260905171153 | 83 | 197 | 1.7 | 6.1 | 0.00 | 0.01 | 0.01 | 71 | 1013.7 |
| 20260905171052 | 83 | 68 | 1.7 | 6.1 | 0.00 | 0.01 | 0.01 | 72 | 1013.7 |
| 20260905170953 | 83 | 104 | 1.7 | 6.1 | 0.00 | 0.01 | 0.01 | 72 | 1013.7 |
| 20260905170853 | 83 | 345 | 1.7 | 6.1 | 0.00 | 0.01 | 0.01 | 72 | 1013.7 |
| 20260905170753 | 83 | 4 | 2.6 | 6.1 | 0.00 | 0.01 | 0.01 | 72 | 1013.7 |
| 20260905170648 | 83 | 53 | 2.6 | 6.1 | 0.00 | 0.01 | 0.01 | 73 | 1013.7 |
| 20260905170546 | 83 | 38 | 2.6 | 7.0 | 0.00 | 0.01 | 0.01 | 72 | 1013.7 |
| 20260905170446 | 83 | 20 | 2.6 | 7.0 | 0.00 | 0.01 | 0.01 | 72 | 1013.7 |
| 20260905170342 | 83 | 81 | 2.6 | 7.0 | 0.00 | 0.01 | 0.01 | 73 | 1013.8 |
| 20260905170244 | 83 | 180 | 2.6 | 7.0 | 0.00 | 0.01 | 0.01 | 74 | 1013.8 |
| 20260905170141 | 83 | 83 | 1.7 | 7.0 | 0.01 | 0.01 | 0.01 | 73 | 1013.8 |
| 20260905170045 | 82 | 89 | 1.7 | 7.0 | 0.01 | 0.01 | 0.01 | 74 | 1013.9 |
| 20260905165942 | 82 | 0 | 2.6 | 7.0 | 0.01 | 0.01 | 0.01 | 74 | 1013.9 |
| 20260905165836 | 82 | 39 | 2.6 | 7.0 | 0.01 | 0.01 | 0.01 | 73 | 1013.9 |
| 20260905165734 | 82 | 60 | 1.7 | 7.0 | 0.01 | 0.01 | 0.01 | 73 | 1013.9 |
| 20260905165633 | 82 | 110 | 1.7 | 5.2 | 0.01 | 0.01 | 0.01 | 74 | 1013.8 |
| 20260905165531 | 82 | 11 | 1.7 | 5.2 | 0.01 | 0.01 | 0.01 | 74 | 1013.7 |
| 20260905165432 | 82 | 320 | 1.7 | 5.2 | 0.01 | 0.01 | 0.01 | 74 | 1013.7 |
| 20260905165331 | 82 | 281 | 1.7 | 5.2 | 0.01 | 0.01 | 0.01 | 75 | 1013.8 |
| 20260905165232 | 81 | 47 | 1.7 | 5.2 | 0.01 | 0.01 | 0.01 | 74 | 1013.8 |
| 20260905165125 | 81 | 149 | 1.7 | 5.2 | 0.01 | 0.01 | 0.01 | 75 | 1013.7 |
| 20260905165025 | 81 | 2 | 1.7 | 5.2 | 0.01 | 0.01 | 0.01 | 75 | 1013.7 |
| 20260905164925 | 81 | 32 | 0.9 | 5.2 | 0.01 | 0.01 | 0.01 | 75 | 1013.7 |
| 20260905164825 | 81 | 118 | 1.7 | 5.2 | 0.01 | 0.01 | 0.01 | 75 | 1013.7 |
| 20260905164724 | 80 | 133 | 1.7 | 5.2 | 0.01 | 0.01 | 0.01 | 76 | 1013.7 |
| 20260905164625 | 80 | 74 | 1.7 | 5.2 | 0.01 | 0.01 | 0.01 | 76 | 1013.7 |
| 20260905164525 | 80 | 105 | 1.7 | 5.2 | 0.01 | 0.01 | 0.01 | 76 | 1013.7 |
| 20260905164426 | 80 | 25 | 1.7 | 5.2 | 0.01 | 0.01 | 0.01 | 76 | 1013.7 |
| 20260905164323 | 80 | 58 | 1.7 | 5.2 | 0.01 | 0.01 | 0.01 | 76 | 1013.8 |
| 20260905164224 | 80 | 38 | 1.7 | 5.2 | 0.01 | 0.01 | 0.01 | 76 | 1013.8 |
| 20260905164122 | 79 | 109 | 1.7 | 5.2 | 0.01 | 0.01 | 0.01 | 76 | 1013.9 |
| 20260905164022 | 79 | 10 | 1.7 | 5.2 | 0.01 | 0.01 | 0.01 | 76 | 1013.9 |
| 20260905163920 | 79 | 351 | 0.9 | 5.2 | 0.01 | 0.01 | 0.01 | 76 | 1014.0 |
| 20260905163818 | 79 | 2 | 0.9 | 5.2 | 0.01 | 0.01 | 0.01 | 76 | 1014.0 |
| 20260905163720 | 78 | 108 | 0.9 | 5.2 | 0.01 | 0.01 | 0.01 | 76 | 1014.1 |
| 20260905163621 | 78 | 345 | 0.9 | 4.3 | 0.01 | 0.01 | 0.01 | 76 | 1014.1 |
| 20260905163520 | 78 | 134 | 0.9 | 4.3 | 0.01 | 0.01 | 0.01 | 76 | 1014.1 |
| 20260905163419 | 78 | 155 | 0.9 | 3.5 | 0.01 | 0.01 | 0.01 | 76 | 1014.1 |
| 20260905163316 | 77 | 20 | 0.9 | 4.3 | 0.01 | 0.01 | 0.01 | 76 | 1014.0 |
| 20260905163215 | 77 | 43 | 0.9 | 4.3 | 0.01 | 0.01 | 0.01 | 76 | 1014.0 |
| 20260905163114 | 77 | 1 | 0.9 | 4.3 | 0.01 | 0.01 | 0.01 | 76 | 1014.0 |
| 20260905163012 | 76 | 43 | 0.9 | 4.3 | 0.01 | 0.01 | 0.01 | 76 | 1014.0 |
| 20260905162914 | 76 | 45 | 0.9 | 4.3 | 0.01 | 0.01 | 0.01 | 75 | 1014.0 |
| 20260905162815 | 76 | 12 | 0.9 | 4.3 | 0.01 | 0.01 | 0.01 | 74 | 1014.0 |
| 20260905162713 | 76 | 40 | 0.9 | 4.3 | 0.01 | 0.01 | 0.01 | 75 | 1014.0 |
| 20260905162612 | 76 | 40 | 0.9 | 4.3 | 0.01 | 0.01 | 0.01 | 74 | 1014.2 |
| 20260905162508 | 76 | 61 | 0.9 | 4.3 | 0.01 | 0.01 | 0.01 | 73 | 1014.2 |
| 20260905162412 | 75 | 61 | 0.9 | 4.3 | 0.01 | 0.01 | 0.01 | 73 | 1014.2 |
| 20260905162307 | 75 | 66 | 0.9 | 4.3 | 0.01 | 0.01 | 0.01 | 72 | 1014.2 |
| 20260905162207 | 75 | 33 | 0.9 | 2.6 | 0.01 | 0.01 | 0.01 | 72 | 1014.3 |
| 20260905162106 | 75 | 42 | 0.9 | 2.6 | 0.01 | 0.01 | 0.01 | 73 | 1014.3 |
| 20260905162007 | 75 | 41 | 0.9 | 2.6 | 0.01 | 0.01 | 0.01 | 72 | 1014.3 |
| 20260905161911 | 74 | 97 | 0.9 | 2.6 | 0.01 | 0.01 | 0.01 | 73 | 1014.3 |
| 20260905161807 | 74 | 180 | 0.0 | 1.7 | 0.01 | 0.01 | 0.01 | 73 | 1014.4 |
| 20260905161705 | 74 | 180 | 0.0 | 1.7 | 0.01 | 0.01 | 0.01 | 74 | 1014.4 |
| 20260905161606 | 74 | 180 | 0.0 | 1.7 | 0.01 | 0.01 | 0.01 | 74 | 1014.4 |
| 20260905161509 | 74 | 180 | 0.0 | 1.7 | 0.01 | 0.01 | 0.01 | 75 | 1014.5 |
| 20260905161404 | 74 | 180 | 0.0 | 2.6 | 0.01 | 0.01 | 0.01 | 75 | 1014.5 |
| 20260905161303 | 74 | 180 | 0.9 | 2.6 | 0.01 | 0.01 | 0.01 | 75 | 1014.6 |
| 20260905161204 | 74 | 180 | 0.9 | 5.2 | 0.01 | 0.01 | 0.01 | 75 | 1014.6 |
| 20260905161102 | 74 | 180 | 1.7 | 6.1 | 0.01 | 0.01 | 0.01 | 75 | 1014.6 |
| 20260905160957 | 74 | 180 | 1.7 | 6.1 | 0.01 | 0.01 | 0.01 | 75 | 1014.7 |
| 20260905160855 | 74 | 180 | 1.7 | 7.0 | 0.01 | 0.01 | 0.01 | 76 | 1014.7 |
| 20260905160757 | 74 | 180 | 1.7 | 7.0 | 0.01 | 0.01 | 0.01 | 76 | 1014.7 |
| 20260905160655 | 74 | 180 | 1.7 | 7.0 | 0.01 | 0.01 | 0.01 | 76 | 1014.8 |
| 20260905160555 | 74 | 180 | 2.6 | 7.0 | 0.01 | 0.01 | 0.01 | 76 | 1014.7 |
| 20260905160446 | 75 | 180 | 2.6 | 7.0 | 0.01 | 0.01 | 0.01 | 76 | 1014.7 |
| 20260905160348 | 75 | 180 | 2.6 | 7.0 | 0.01 | 0.01 | 0.01 | 77 | 1014.7 |
| 20260905160247 | 75 | 180 | 2.6 | 9.6 | 0.01 | 0.01 | 0.01 | 77 | 1014.7 |
| 20260905160147 | 76 | 180 | 2.6 | 9.6 | 0.00 | 0.00 | 0.01 | 77 | 1014.8 |
| 20260905160042 | 76 | 305 | 2.6 | 9.6 | 0.00 | 0.00 | 0.01 | 77 | 1014.9 |
| 20260905155944 | 76 | 278 | 2.6 | 9.6 | 0.00 | 0.00 | 0.00 | 77 | 1015.0 |
| 20260905155841 | 76 | 284 | 2.6 | 9.6 | 0.00 | 0.00 | 0.00 | 77 | 1015.0 |
| 20260905155742 | 77 | 305 | 2.6 | 9.6 | 0.00 | 0.00 | 0.00 | 77 | 1015.0 |
| 20260905155635 | 77 | 276 | 3.5 | 9.6 | 0.00 | 0.00 | 0.00 | 77 | 1015.2 |
| 20260905155535 | 77 | 189 | 3.5 | 9.6 | 0.00 | 0.00 | 0.00 | 77 | 1015.3 |
| 20260905155434 | 77 | 229 | 2.6 | 9.6 | 0.00 | 0.00 | 0.00 | 76 | 1015.4 |
| 20260905155333 | 78 | 175 | 2.6 | 9.6 | 0.00 | 0.00 | 0.00 | 76 | 1015.4 |
| 20260905155230 | 78 | 175 | 2.6 | 7.8 | 0.00 | 0.00 | 0.00 | 76 | 1015.4 |
| 20260905155131 | 78 | 229 | 1.7 | 6.1 | 0.00 | 0.00 | 0.00 | 76 | 1015.4 |
| 20260905155031 | 78 | 162 | 1.7 | 6.1 | 0.00 | 0.00 | 0.00 | 76 | 1015.4 |
| 20260905154932 | 78 | 193 | 1.7 | 3.5 | 0.00 | 0.00 | 0.00 | 76 | 1015.3 |
| 20260905154832 | 79 | 171 | 0.9 | 2.6 | 0.00 | 0.00 | 0.00 | 76 | 1015.2 |
| 20260905154731 | 79 | 175 | 0.9 | 2.6 | 0.00 | 0.00 | 0.00 | 76 | 1015.1 |
| 20260905154627 | 79 | 175 | 0.9 | 2.6 | 0.00 | 0.00 | 0.00 | 76 | 1015.0 |
| 20260905154528 | 79 | 168 | 0.9 | 2.6 | 0.00 | 0.00 | 0.00 | 76 | 1015.0 |
| 20260905154428 | 80 | 149 | 0.9 | 2.6 | 0.00 | 0.00 | 0.00 | 75 | 1014.9 |
| 20260905154327 | 80 | 149 | 0.9 | 2.6 | 0.00 | 0.00 | 0.00 | 75 | 1014.9 |
| 20260905154225 | 80 | 104 | 0.9 | 2.6 | 0.00 | 0.00 | 0.00 | 74 | 1014.9 |
| 20260905154127 | 80 | 104 | 0.9 | 2.6 | 0.00 | 0.00 | 0.00 | 74 | 1014.9 |
| 20260905154026 | 80 | 74 | 0.9 | 2.6 | 0.00 | 0.00 | 0.00 | 75 | 1014.8 |
| 20260905153926 | 80 | 170 | 0.9 | 2.6 | 0.00 | 0.00 | 0.00 | 74 | 1014.7 |
| 20260905153823 | 80 | 97 | 0.9 | 2.6 | 0.00 | 0.00 | 0.00 | 73 | 1014.6 |
| 20260905153724 | 80 | 75 | 0.9 | 4.3 | 0.00 | 0.00 | 0.00 | 73 | 1014.5 |
| 20260905153624 | 81 | 75 | 0.9 | 4.3 | 0.00 | 0.00 | 0.00 | 73 | 1014.4 |
| 20260905153524 | 81 | 43 | 0.9 | 4.3 | 0.00 | 0.00 | 0.00 | 73 | 1014.3 |
| 20260905153423 | 81 | 82 | 0.9 | 4.3 | 0.00 | 0.00 | 0.00 | 73 | 1014.3 |
| 20260905153324 | 81 | 355 | 0.9 | 4.3 | 0.00 | 0.00 | 0.00 | 73 | 1014.3 |
| 20260905153224 | 81 | 348 | 0.9 | 4.3 | 0.00 | 0.00 | 0.00 | 73 | 1014.3 |
| 20260905153122 | 81 | 31 | 0.9 | 4.3 | 0.00 | 0.00 | 0.00 | 73 | 1014.3 |
| 20260905153021 | 81 | 83 | 0.9 | 4.3 | 0.00 | 0.00 | 0.00 | 74 | 1014.4 |
| 20260905152922 | 81 | 68 | 0.9 | 4.3 | 0.00 | 0.00 | 0.00 | 74 | 1014.3 |
| 20260905152816 | 81 | 113 | 0.9 | 4.3 | 0.00 | 0.00 | 0.00 | 73 | 1014.4 |
| 20260905152716 | 80 | 64 | 0.9 | 3.5 | 0.00 | 0.00 | 0.00 | 74 | 1014.4 |
| 20260905152615 | 80 | 325 | 0.9 | 3.5 | 0.00 | 0.00 | 0.00 | 75 | 1014.4 |
| 20260905152512 | 80 | 243 | 0.9 | 3.5 | 0.00 | 0.00 | 0.00 | 75 | 1014.3 |
| 20260905152412 | 80 | 295 | 0.9 | 3.5 | 0.00 | 0.00 | 0.00 | 74 | 1014.3 |
| 20260905152311 | 80 | 74 | 0.9 | 3.5 | 0.00 | 0.00 | 0.00 | 74 | 1014.3 |
| 20260905152212 | 80 | 351 | 0.9 | 3.5 | 0.00 | 0.00 | 0.00 | 74 | 1014.3 |
| 20260905152110 | 80 | 15 | 0.9 | 3.5 | 0.00 | 0.00 | 0.00 | 75 | 1014.2 |
| 20260905152005 | 80 | 6 | 0.9 | 3.5 | 0.00 | 0.00 | 0.00 | 75 | 1014.1 |
| 20260905151904 | 79 | 333 | 0.9 | 3.5 | 0.00 | 0.00 | 0.00 | 75 | 1014.1 |
| 20260905151801 | 79 | 343 | 0.9 | 3.5 | 0.00 | 0.00 | 0.00 | 75 | 1014.1 |
| 20260905151700 | 79 | 7 | 0.9 | 3.5 | 0.00 | 0.00 | 0.00 | 75 | 1014.1 |
| 20260905151601 | 79 | 1 | 0.9 | 3.5 | 0.00 | 0.00 | 0.00 | 76 | 1014.1 |
| 20260905151502 | 79 | 345 | 0.9 | 3.5 | 0.00 | 0.00 | 0.00 | 75 | 1014.1 |
| 20260905151356 | 79 | 337 | 0.9 | 3.5 | 0.00 | 0.00 | 0.00 | 75 | 1014.1 |
| 20260905151258 | 79 | 145 | 0.9 | 3.5 | 0.00 | 0.00 | 0.00 | 75 | 1014.2 |
| 20260905151155 | 79 | 21 | 0.9 | 3.5 | 0.00 | 0.00 | 0.00 | 75 | 1014.1 |
| 20260905151055 | 78 | 37 | 0.9 | 3.5 | 0.00 | 0.00 | 0.00 | 75 | 1014.1 |
| 20260905150950 | 78 | 149 | 0.9 | 3.5 | 0.00 | 0.00 | 0.00 | 76 | 1014.1 |
| 20260905150849 | 78 | 1 | 0.9 | 3.5 | 0.00 | 0.00 | 0.00 | 76 | 1014.1 |
| 20260905150748 | 78 | 6 | 0.9 | 3.5 | 0.00 | 0.00 | 0.00 | 76 | 1014.1 |
| 20260905150655 | 78 | 10 | 0.9 | 3.5 | 0.00 | 0.00 | 0.00 | 75 | 1014.0 |
| 20260905150545 | 78 | 14 | 0.9 | 3.5 | 0.00 | 0.00 | 0.00 | 75 | 1014.0 |
| 20260905150446 | 78 | 18 | 0.9 | 4.3 | 0.00 | 0.00 | 0.00 | 75 | 1014.0 |
| 20260905150342 | 78 | 160 | 0.9 | 4.3 | 0.00 | 0.00 | 0.00 | 75 | 1014.0 |
| 20260905150243 | 78 | 29 | 0.9 | 4.3 | 0.00 | 0.00 | 0.00 | 76 | 1014.0 |
| 20260905150140 | 78 | 355 | 1.7 | 5.2 | 0.00 | 0.00 | 0.00 | 76 | 1014.0 |
| 20260905150038 | 78 | 57 | 1.7 | 5.2 | 0.00 | 0.00 | 0.00 | 75 | 1013.9 |
| 20260905145939 | 78 | 12 | 1.7 | 5.2 | 0.00 | 0.00 | 0.00 | 75 | 1013.9 |
| 20260905145837 | 78 | 12 | 1.7 | 5.2 | 0.00 | 0.00 | 0.00 | 76 | 1014.0 |
| 20260905145738 | 78 | 12 | 1.7 | 5.2 | 0.00 | 0.00 | 0.00 | 75 | 1013.9 |
| 20260905145638 | 78 | 322 | 1.7 | 5.2 | 0.00 | 0.00 | 0.00 | 76 | 1014.0 |
| 20260905145534 | 78 | 343 | 1.7 | 5.2 | 0.00 | 0.00 | 0.00 | 75 | 1014.0 |
| 20260905145432 | 78 | 13 | 1.7 | 5.2 | 0.00 | 0.00 | 0.00 | 75 | 1013.9 |
| 20260905145332 | 78 | 340 | 1.7 | 5.2 | 0.00 | 0.00 | 0.00 | 75 | 1014.0 |
| 20260905145231 | 78 | 326 | 0.9 | 5.2 | 0.00 | 0.00 | 0.00 | 76 | 1013.9 |
| 20260905145128 | 78 | 348 | 0.9 | 3.5 | 0.00 | 0.00 | 0.00 | 76 | 1013.9 |
| 20260905145028 | 78 | 307 | 0.9 | 3.5 | 0.00 | 0.00 | 0.00 | 76 | 1013.8 |
| 20260905144927 | 78 | 307 | 1.7 | 3.5 | 0.00 | 0.00 | 0.00 | 76 | 1013.8 |
| 20260905144827 | 78 | 25 | 1.7 | 3.5 | 0.00 | 0.00 | 0.00 | 76 | 1013.8 |
| 20260905144727 | 78 | 8 | 1.7 | 3.5 | 0.00 | 0.00 | 0.00 | 76 | 1013.8 |
| 20260905144625 | 78 | 37 | 1.7 | 3.5 | 0.00 | 0.00 | 0.00 | 76 | 1013.8 |
| 20260905144524 | 78 | 2 | 0.9 | 3.5 | 0.00 | 0.00 | 0.00 | 76 | 1013.8 |
| 20260905144424 | 78 | 310 | 1.7 | 4.3 | 0.00 | 0.00 | 0.00 | 76 | 1013.8 |
| 20260905144320 | 78 | 334 | 1.7 | 4.3 | 0.00 | 0.00 | 0.00 | 76 | 1013.8 |
| 20260905144221 | 78 | 29 | 1.7 | 4.3 | 0.00 | 0.00 | 0.00 | 76 | 1013.8 |
| 20260905144121 | 78 | 339 | 1.7 | 4.3 | 0.00 | 0.00 | 0.00 | 76 | 1013.8 |
| 20260905144020 | 78 | 14 | 1.7 | 4.3 | 0.00 | 0.00 | 0.00 | 76 | 1013.8 |
| 20260905143920 | 78 | 18 | 1.7 | 5.2 | 0.00 | 0.00 | 0.00 | 76 | 1013.8 |
| 20260905143822 | 78 | 58 | 1.7 | 5.2 | 0.00 | 0.00 | 0.00 | 76 | 1013.8 |
| 20260905143720 | 78 | 316 | 1.7 | 6.1 | 0.00 | 0.00 | 0.00 | 76 | 1013.8 |
| 20260905143620 | 78 | 357 | 1.7 | 6.1 | 0.00 | 0.00 | 0.00 | 76 | 1013.8 |
| 20260905143519 | 78 | 355 | 2.6 | 6.1 | 0.00 | 0.00 | 0.00 | 76 | 1013.8 |
| 20260905143419 | 78 | 14 | 2.6 | 6.1 | 0.00 | 0.00 | 0.00 | 76 | 1013.9 |
| 20260905143313 | 77 | 351 | 2.6 | 6.1 | 0.00 | 0.00 | 0.00 | 76 | 1013.8 |
| 20260905143212 | 77 | 328 | 2.6 | 6.1 | 0.00 | 0.00 | 0.00 | 76 | 1013.8 |
| 20260905143111 | 77 | 343 | 2.6 | 6.1 | 0.00 | 0.00 | 0.00 | 76 | 1013.8 |
| 20260905143012 | 77 | 333 | 2.6 | 6.1 | 0.00 | 0.00 | 0.00 | 76 | 1013.8 |
| 20260905142909 | 77 | 50 | 2.6 | 6.1 | 0.00 | 0.00 | 0.00 | 76 | 1013.8 |
| 20260905142810 | 77 | 6 | 2.6 | 6.1 | 0.00 | 0.00 | 0.00 | 76 | 1013.8 |
| 20260905142706 | 77 | 337 | 2.6 | 6.1 | 0.00 | 0.00 | 0.00 | 76 | 1013.8 |
| 20260905142605 | 77 | 25 | 2.6 | 6.1 | 0.00 | 0.00 | 0.00 | 76 | 1013.7 |
| 20260905142505 | 77 | 31 | 2.6 | 6.1 | 0.00 | 0.00 | 0.00 | 76 | 1013.7 |
| 20260905142405 | 77 | 341 | 1.7 | 6.1 | 0.00 | 0.00 | 0.00 | 76 | 1013.7 |
| 20260905142306 | 77 | 0 | 1.7 | 6.1 | 0.00 | 0.00 | 0.00 | 76 | 1013.7 |
| 20260905142207 | 77 | 13 | 1.7 | 6.1 | 0.00 | 0.00 | 0.00 | 76 | 1013.7 |
| 20260905142106 | 76 | 52 | 1.7 | 6.1 | 0.00 | 0.00 | 0.00 | 77 | 1013.7 |
| 20260905142006 | 76 | 328 | 2.6 | 6.1 | 0.00 | 0.00 | 0.00 | 77 | 1013.7 |
| 20260905141902 | 76 | 143 | 2.6 | 6.1 | 0.00 | 0.00 | 0.00 | 77 | 1013.7 |
| 20260905141804 | 76 | 322 | 2.6 | 6.1 | 0.00 | 0.00 | 0.00 | 77 | 1013.8 |
| 20260905141658 | 76 | 345 | 2.6 | 7.8 | 0.00 | 0.00 | 0.00 | 77 | 1013.8 |
| 20260905141558 | 76 | 316 | 2.6 | 7.8 | 0.00 | 0.00 | 0.00 | 77 | 1013.8 |
| 20260905141456 | 76 | 327 | 2.6 | 7.8 | 0.00 | 0.00 | 0.00 | 77 | 1013.9 |
| 20260905141357 | 76 | 320 | 2.6 | 7.8 | 0.00 | 0.00 | 0.00 | 77 | 1013.9 |
| 20260905141252 | 76 | 309 | 2.6 | 7.8 | 0.00 | 0.00 | 0.00 | 77 | 1013.9 |
| 20260905141153 | 76 | 350 | 2.6 | 7.8 | 0.00 | 0.00 | 0.00 | 77 | 1013.9 |
| 20260905141054 | 76 | 330 | 1.7 | 7.8 | 0.00 | 0.00 | 0.00 | 77 | 1014.0 |
| 20260905140953 | 76 | 29 | 1.7 | 7.8 | 0.00 | 0.00 | 0.00 | 77 | 1014.0 |
| 20260905140853 | 76 | 24 | 1.7 | 7.8 | 0.00 | 0.00 | 0.00 | 77 | 1014.0 |
| 20260905140753 | 75 | 344 | 1.7 | 6.1 | 0.00 | 0.00 | 0.00 | 77 | 1014.1 |
| 20260905140647 | 75 | 334 | 0.9 | 5.2 | 0.00 | 0.00 | 0.00 | 77 | 1014.1 |
| 20260905140547 | 75 | 357 | 1.7 | 4.3 | 0.00 | 0.00 | 0.00 | 77 | 1014.1 |
| 20260905140447 | 75 | 8 | 1.7 | 5.2 | 0.00 | 0.00 | 0.00 | 77 | 1014.1 |
| 20260905140348 | 75 | 349 | 1.7 | 5.2 | 0.00 | 0.00 | 0.00 | 77 | 1014.1 |
| 20260905140243 | 75 | 352 | 1.7 | 5.2 | 0.00 | 0.00 | 0.00 | 77 | 1014.2 |
| 20260905140145 | 75 | 345 | 1.7 | 5.2 | 0.00 | 0.00 | 0.00 | 77 | 1014.2 |
| 20260905140038 | 74 | 344 | 1.7 | 5.2 | 0.00 | 0.00 | 0.00 | 77 | 1014.2 |
| 20260905135938 | 74 | 29 | 1.7 | 5.2 | 0.00 | 0.00 | 0.00 | 77 | 1014.2 |
| 20260905135837 | 74 | 29 | 1.7 | 5.2 | 0.00 | 0.00 | 0.00 | 77 | 1014.1 |
| 20260905135739 | 74 | 25 | 1.7 | 5.2 | 0.00 | 0.00 | 0.00 | 77 | 1014.1 |
| 20260905135635 | 74 | 333 | 2.6 | 7.0 | 0.00 | 0.00 | 0.00 | 77 | 1014.1 |
| 20260905135538 | 74 | 4 | 2.6 | 7.0 | 0.00 | 0.00 | 0.00 | 77 | 1014.1 |
| 20260905135433 | 74 | 333 | 2.6 | 7.0 | 0.00 | 0.00 | 0.00 | 77 | 1014.0 |
| 20260905135331 | 74 | 294 | 2.6 | 7.0 | 0.00 | 0.00 | 0.00 | 77 | 1014.0 |
| 20260905135228 | 73 | 281 | 2.6 | 7.0 | 0.00 | 0.00 | 0.00 | 77 | 1014.1 |
| 20260905135128 | 73 | 338 | 2.6 | 7.0 | 0.00 | 0.00 | 0.00 | 77 | 1014.0 |
| 20260905135024 | 73 | 316 | 2.6 | 7.0 | 0.00 | 0.00 | 0.00 | 77 | 1014.0 |
| 20260905134927 | 73 | 326 | 2.6 | 7.0 | 0.00 | 0.00 | 0.00 | 77 | 1014.0 |
| 20260905134826 | 73 | 325 | 2.6 | 7.0 | 0.00 | 0.00 | 0.00 | 77 | 1014.1 |
| 20260905134724 | 73 | 355 | 2.6 | 7.0 | 0.00 | 0.00 | 0.00 | 77 | 1014.1 |
| 20260905134627 | 73 | 318 | 2.6 | 7.0 | 0.00 | 0.00 | 0.00 | 77 | 1014.1 |
| 20260905134525 | 73 | 308 | 2.6 | 7.0 | 0.00 | 0.00 | 0.00 | 77 | 1014.0 |
| 20260905134423 | 73 | 302 | 2.6 | 7.0 | 0.00 | 0.00 | 0.00 | 77 | 1014.0 |
| 20260905134322 | 73 | 291 | 2.6 | 7.0 | 0.00 | 0.00 | 0.00 | 77 | 1014.1 |
| 20260905134225 | 72 | 303 | 2.6 | 7.0 | 0.00 | 0.00 | 0.00 | 77 | 1014.1 |
| 20260905134125 | 72 | 357 | 2.6 | 7.0 | 0.00 | 0.00 | 0.00 | 77 | 1014.1 |
| 20260905134023 | 72 | 358 | 2.6 | 7.0 | 0.00 | 0.00 | 0.00 | 76 | 1014.1 |
| 20260905133924 | 72 | 337 | 2.6 | 7.0 | 0.00 | 0.00 | 0.00 | 77 | 1014.1 |
| 20260905133823 | 72 | 3 | 2.6 | 7.0 | 0.00 | 0.00 | 0.00 | 77 | 1014.1 |
| 20260905133724 | 72 | 40 | 2.6 | 7.0 | 0.00 | 0.00 | 0.00 | 77 | 1014.1 |
| 20260905133623 | 72 | 348 | 2.6 | 7.0 | 0.00 | 0.00 | 0.00 | 77 | 1014.1 |
| 20260905133524 | 72 | 319 | 2.6 | 7.0 | 0.00 | 0.00 | 0.00 | 77 | 1014.1 |
| 20260905133416 | 72 | 348 | 2.6 | 7.0 | 0.00 | 0.00 | 0.00 | 77 | 1014.1 |
| 20260905133318 | 72 | 339 | 2.6 | 7.0 | 0.00 | 0.00 | 0.00 | 76 | 1014.1 |
| 20260905133217 | 72 | 299 | 2.6 | 6.1 | 0.00 | 0.00 | 0.00 | 76 | 1014.2 |
| 20260905133118 | 72 | 347 | 1.7 | 6.1 | 0.00 | 0.00 | 0.00 | 76 | 1014.2 |
| 20260905133011 | 71 | 342 | 2.6 | 6.1 | 0.00 | 0.00 | 0.00 | 75 | 1014.2 |
| 20260905132912 | 71 | 340 | 2.6 | 6.1 | 0.00 | 0.00 | 0.00 | 76 | 1014.3 |
| 20260905132808 | 71 | 308 | 1.7 | 6.1 | 0.00 | 0.00 | 0.00 | 76 | 1014.3 |
| 20260905132710 | 71 | 286 | 1.7 | 6.1 | 0.00 | 0.00 | 0.00 | 75 | 1014.3 |
| 20260905132605 | 71 | 333 | 1.7 | 6.1 | 0.00 | 0.00 | 0.00 | 75 | 1014.3 |
| 20260905132506 | 71 | 274 | 1.7 | 5.2 | 0.00 | 0.00 | 0.00 | 74 | 1014.3 |
| 20260905132405 | 71 | 310 | 1.7 | 4.3 | 0.00 | 0.00 | 0.00 | 74 | 1014.3 |
| 20260905132306 | 71 | 316 | 0.9 | 4.3 | 0.00 | 0.00 | 0.00 | 74 | 1014.4 |
| 20260905132200 | 71 | 341 | 0.9 | 4.3 | 0.00 | 0.00 | 0.00 | 75 | 1014.4 |
| 20260905132102 | 70 | 318 | 1.7 | 4.3 | 0.00 | 0.00 | 0.00 | 74 | 1014.5 |
| 20260905131953 | 70 | 334 | 1.7 | 5.2 | 0.00 | 0.00 | 0.00 | 73 | 1014.5 |
| 20260905131853 | 70 | 345 | 1.7 | 5.2 | 0.00 | 0.00 | 0.00 | 73 | 1014.5 |
| 20260905131752 | 70 | 320 | 1.7 | 5.2 | 0.00 | 0.00 | 0.00 | 73 | 1014.4 |
| 20260905131654 | 70 | 226 | 1.7 | 5.2 | 0.00 | 0.00 | 0.00 | 73 | 1014.4 |
| 20260905131551 | 70 | 288 | 2.6 | 6.1 | 0.00 | 0.00 | 0.00 | 73 | 1014.4 |
| 20260905131452 | 70 | 347 | 2.6 | 6.1 | 0.00 | 0.00 | 0.00 | 73 | 1014.4 |
| 20260905131348 | 70 | 4 | 2.6 | 6.1 | 0.00 | 0.00 | 0.00 | 73 | 1014.4 |
| 20260905131246 | 70 | 302 | 2.6 | 6.1 | 0.00 | 0.00 | 0.00 | 73 | 1014.5 |
| 20260905131147 | 70 | 342 | 2.6 | 6.1 | 0.00 | 0.00 | 0.00 | 73 | 1014.5 |
| 20260905131049 | 70 | 348 | 1.7 | 6.1 | 0.00 | 0.00 | 0.00 | 73 | 1014.5 |
| 20260905130942 | 69 | 180 | 1.7 | 6.1 | 0.00 | 0.00 | 0.00 | 72 | 1014.6 |
| 20260905130842 | 69 | 180 | 1.7 | 6.1 | 0.00 | 0.00 | 0.00 | 73 | 1014.7 |
| 20260905130743 | 69 | 330 | 1.7 | 6.1 | 0.00 | 0.00 | 0.00 | 72 | 1014.7 |
| 20260905130642 | 69 | 335 | 1.7 | 6.1 | 0.00 | 0.00 | 0.00 | 72 | 1014.6 |
| 20260905130535 | 69 | 334 | 1.7 | 4.3 | 0.00 | 0.00 | 0.00 | 72 | 1014.7 |
| 20260905130435 | 69 | 333 | 1.7 | 4.3 | 0.00 | 0.00 | 0.00 | 73 | 1014.8 |
| 20260905130335 | 69 | 327 | 1.7 | 4.3 | 0.00 | 0.00 | 0.00 | 73 | 1014.8 |
| 20260905130234 | 69 | 314 | 1.7 | 4.3 | 0.00 | 0.00 | 0.00 | 73 | 1014.8 |
| 20260905130131 | 69 | 310 | 1.7 | 4.3 | 0.00 | 0.00 | 0.00 | 73 | 1014.8 |
| 20260905130033 | 69 | 297 | 1.7 | 4.3 | 0.00 | 0.00 | 0.00 | 73 | 1014.8 |
| 20260905125930 | 69 | 344 | 1.7 | 4.3 | 0.00 | 0.00 | 0.00 | 73 | 1014.8 |
| 20260905125832 | 69 | 272 | 1.7 | 5.2 | 0.00 | 0.00 | 0.00 | 73 | 1014.8 |
| 20260905125725 | 69 | 249 | 1.7 | 5.2 | 0.00 | 0.00 | 0.00 | 72 | 1014.8 |
| 20260905125625 | 69 | 341 | 2.6 | 5.2 | 0.00 | 0.00 | 0.00 | 72 | 1014.8 |
| 20260905125524 | 69 | 266 | 2.6 | 5.2 | 0.00 | 0.00 | 0.00 | 72 | 1014.8 |
| 20260905125426 | 69 | 272 | 2.6 | 5.2 | 0.00 | 0.00 | 0.00 | 72 | 1014.8 |
| 20260905125324 | 69 | 277 | 2.6 | 5.2 | 0.00 | 0.00 | 0.00 | 72 | 1014.7 |
| 20260905125225 | 69 | 289 | 2.6 | 5.2 | 0.00 | 0.00 | 0.00 | 72 | 1014.7 |
| 20260905125125 | 69 | 292 | 2.6 | 5.2 | 0.00 | 0.00 | 0.00 | 72 | 1014.7 |
| 20260905125026 | 69 | 318 | 2.6 | 5.2 | 0.00 | 0.00 | 0.00 | 72 | 1014.7 |
| 20260905124922 | 69 | 297 | 2.6 | 5.2 | 0.00 | 0.00 | 0.00 | 72 | 1014.7 |
| 20260905124824 | 69 | 324 | 2.6 | 5.2 | 0.00 | 0.00 | 0.00 | 72 | 1014.8 |
| 20260905124721 | 68 | 303 | 2.6 | 5.2 | 0.00 | 0.00 | 0.00 | 72 | 1014.8 |
| 20260905124622 | 68 | 319 | 2.6 | 5.2 | 0.00 | 0.00 | 0.00 | 72 | 1014.8 |
| 20260905124516 | 68 | 317 | 2.6 | 4.3 | 0.00 | 0.00 | 0.00 | 71 | 1014.8 |
| 20260905124416 | 68 | 345 | 1.7 | 4.3 | 0.00 | 0.00 | 0.00 | 71 | 1014.8 |
| 20260905124314 | 68 | 301 | 2.6 | 4.3 | 0.00 | 0.00 | 0.00 | 71 | 1014.8 |
| 20260905124214 | 68 | 298 | 2.6 | 4.3 | 0.00 | 0.00 | 0.00 | 71 | 1014.8 |
| 20260905124112 | 68 | 322 | 1.7 | 4.3 | 0.00 | 0.00 | 0.00 | 71 | 1014.8 |
| 20260905124012 | 68 | 326 | 1.7 | 4.3 | 0.00 | 0.00 | 0.00 | 71 | 1014.9 |
| 20260905123908 | 68 | 322 | 1.7 | 5.2 | 0.00 | 0.00 | 0.00 | 71 | 1014.9 |
| 20260905123810 | 68 | 297 | 2.6 | 5.2 | 0.00 | 0.00 | 0.00 | 71 | 1014.9 |
| 20260905123704 | 68 | 303 | 2.6 | 5.2 | 0.00 | 0.00 | 0.00 | 71 | 1014.9 |
| 20260905123603 | 68 | 316 | 2.6 | 5.2 | 0.00 | 0.00 | 0.00 | 70 | 1014.9 |
| 20260905123503 | 68 | 309 | 2.6 | 5.2 | 0.00 | 0.00 | 0.00 | 71 | 1014.9 |
| 20260905123405 | 68 | 295 | 2.6 | 5.2 | 0.00 | 0.00 | 0.00 | 71 | 1014.9 |
| 20260905123303 | 68 | 318 | 1.7 | 5.2 | 0.00 | 0.00 | 0.00 | 71 | 1014.9 |
| 20260905123203 | 68 | 303 | 1.7 | 5.2 | 0.00 | 0.00 | 0.00 | 71 | 1014.9 |
| 20260905123101 | 68 | 299 | 1.7 | 5.2 | 0.00 | 0.00 | 0.00 | 71 | 1014.9 |
| 20260905123002 | 68 | 301 | 1.7 | 5.2 | 0.00 | 0.00 | 0.00 | 71 | 1014.9 |
| 20260905122900 | 68 | 180 | 1.7 | 5.2 | 0.00 | 0.00 | 0.00 | 71 | 1014.9 |
| 20260905122801 | 68 | 180 | 1.7 | 4.3 | 0.00 | 0.00 | 0.00 | 71 | 1014.9 |
| 20260905122701 | 68 | 252 | 1.7 | 6.1 | 0.00 | 0.00 | 0.00 | 71 | 1014.9 |
| 20260905122601 | 68 | 273 | 1.7 | 6.1 | 0.00 | 0.00 | 0.00 | 71 | 1014.8 |
| 20260905122454 | 68 | 299 | 1.7 | 6.1 | 0.00 | 0.00 | 0.00 | 71 | 1014.8 |
| 20260905122352 | 68 | 289 | 1.7 | 6.1 | 0.00 | 0.00 | 0.00 | 71 | 1014.8 |
| 20260905122252 | 68 | 336 | 1.7 | 6.1 | 0.00 | 0.00 | 0.00 | 71 | 1014.8 |
| 20260905122152 | 68 | 274 | 1.7 | 6.1 | 0.00 | 0.00 | 0.00 | 71 | 1014.8 |
| 20260905122046 | 68 | 283 | 2.6 | 6.1 | 0.00 | 0.00 | 0.00 | 71 | 1014.8 |
| 20260905121947 | 68 | 295 | 2.6 | 6.1 | 0.00 | 0.00 | 0.00 | 71 | 1014.8 |
| 20260905121847 | 68 | 289 | 2.6 | 6.1 | 0.00 | 0.00 | 0.00 | 71 | 1014.8 |
| 20260905121748 | 68 | 269 | 2.6 | 6.1 | 0.00 | 0.00 | 0.00 | 71 | 1014.8 |
| 20260905121640 | 68 | 313 | 2.6 | 5.2 | 0.00 | 0.00 | 0.00 | 71 | 1014.9 |
| 20260905121540 | 68 | 279 | 1.7 | 5.2 | 0.00 | 0.00 | 0.00 | 71 | 1014.9 |
| 20260905121441 | 68 | 263 | 1.7 | 5.2 | 0.00 | 0.00 | 0.00 | 71 | 1014.9 |
| 20260905121339 | 68 | 274 | 1.7 | 5.2 | 0.00 | 0.00 | 0.00 | 71 | 1014.9 |
| 20260905121239 | 68 | 268 | 1.7 | 4.3 | 0.00 | 0.00 | 0.00 | 71 | 1014.8 |
| 20260905121139 | 68 | 264 | 1.7 | 4.3 | 0.00 | 0.00 | 0.00 | 71 | 1014.8 |
| 20260905121038 | 68 | 266 | 1.7 | 4.3 | 0.00 | 0.00 | 0.00 | 71 | 1014.8 |
| 20260905120939 | 68 | 287 | 1.7 | 4.3 | 0.00 | 0.00 | 0.00 | 71 | 1014.7 |
| 20260905120838 | 68 | 273 | 1.7 | 4.3 | 0.00 | 0.00 | 0.00 | 72 | 1014.7 |
| 20260905120738 | 68 | 281 | 1.7 | 3.5 | 0.00 | 0.00 | 0.00 | 71 | 1014.6 |
| 20260905120640 | 68 | 296 | 1.7 | 3.5 | 0.00 | 0.00 | 0.00 | 71 | 1014.5 |
| 20260905120540 | 68 | 286 | 1.7 | 4.3 | 0.00 | 0.00 | 0.00 | 71 | 1014.4 |
| 20260905120433 | 68 | 277 | 1.7 | 4.3 | 0.00 | 0.00 | 0.00 | 72 | 1014.4 |
| 20260905120332 | 68 | 278 | 1.7 | 4.3 | 0.00 | 0.00 | 0.00 | 72 | 1014.3 |
| 20260905120233 | 68 | 180 | 1.7 | 4.3 | 0.00 | 0.00 | 0.00 | 72 | 1014.3 |
| 20260905120134 | 68 | 180 | 1.7 | 4.3 | 0.00 | 0.00 | 0.00 | 72 | 1014.2 |
| 20260905120033 | 68 | 180 | 1.7 | 4.3 | 0.00 | 0.00 | 0.00 | 72 | 1014.2 |
| 20260905115932 | 68 | 304 | 1.7 | 4.3 | 0.00 | 0.00 | 0.00 | 72 | 1014.2 |
| 20260905115834 | 68 | 296 | 1.7 | 4.3 | 0.00 | 0.00 | 0.00 | 72 | 1014.2 |
| 20260905115731 | 68 | 297 | 1.7 | 4.3 | 0.00 | 0.00 | 0.00 | 72 | 1014.2 |
| 20260905115632 | 68 | 180 | 1.7 | 4.3 | 0.00 | 0.00 | 0.00 | 72 | 1014.3 |
| 20260905115533 | 68 | 180 | 1.7 | 2.6 | 0.00 | 0.00 | 0.00 | 72 | 1014.3 |
| 20260905115431 | 68 | 180 | 1.7 | 2.6 | 0.00 | 0.00 | 0.00 | 72 | 1014.3 |
| 20260905115332 | 68 | 180 | 1.7 | 2.6 | 0.00 | 0.00 | 0.00 | 72 | 1014.3 |
| 20260905115230 | 68 | 180 | 1.7 | 2.6 | 0.00 | 0.00 | 0.00 | 72 | 1014.4 |
| 20260905115132 | 68 | 180 | 1.7 | 2.6 | 0.00 | 0.00 | 0.00 | 72 | 1014.4 |
| 20260905115030 | 68 | 180 | 1.7 | 2.6 | 0.00 | 0.00 | 0.00 | 72 | 1014.4 |
| 20260905114932 | 68 | 180 | 1.7 | 5.2 | 0.00 | 0.00 | 0.00 | 72 | 1014.4 |
| 20260905114832 | 68 | 180 | 1.7 | 5.2 | 0.00 | 0.00 | 0.00 | 72 | 1014.4 |
| 20260905114732 | 68 | 180 | 1.7 | 6.1 | 0.00 | 0.00 | 0.00 | 73 | 1014.4 |
| 20260905114630 | 68 | 260 | 1.7 | 6.1 | 0.00 | 0.00 | 0.00 | 73 | 1014.4 |
| 20260905114531 | 68 | 180 | 2.6 | 6.1 | 0.00 | 0.00 | 0.00 | 73 | 1014.4 |
| 20260905114430 | 68 | 269 | 2.6 | 7.0 | 0.00 | 0.00 | 0.00 | 73 | 1014.3 |
| 20260905114331 | 68 | 180 | 2.6 | 7.0 | 0.00 | 0.00 | 0.00 | 73 | 1014.4 |
| 20260905114232 | 68 | 276 | 3.5 | 8.7 | 0.00 | 0.00 | 0.00 | 73 | 1014.4 |
| 20260905114130 | 68 | 302 | 3.5 | 8.7 | 0.00 | 0.00 | 0.00 | 73 | 1014.4 |
| 20260905114029 | 68 | 290 | 3.5 | 8.7 | 0.00 | 0.00 | 0.00 | 73 | 1014.4 |
| 20260905113929 | 68 | 291 | 3.5 | 8.7 | 0.00 | 0.00 | 0.00 | 73 | 1014.4 |
| 20260905113831 | 68 | 180 | 3.5 | 8.7 | 0.00 | 0.00 | 0.00 | 73 | 1014.5 |
| 20260905113730 | 68 | 288 | 3.5 | 8.7 | 0.00 | 0.00 | 0.00 | 73 | 1014.4 |
| 20260905113629 | 68 | 299 | 3.5 | 8.7 | 0.00 | 0.00 | 0.00 | 73 | 1014.5 |
| 20260905113529 | 68 | 180 | 3.5 | 8.7 | 0.00 | 0.00 | 0.00 | 73 | 1014.4 |
| 20260905113430 | 68 | 180 | 3.5 | 8.7 | 0.00 | 0.00 | 0.00 | 73 | 1014.4 |
| 20260905113331 | 68 | 265 | 3.5 | 8.7 | 0.00 | 0.00 | 0.00 | 73 | 1014.4 |
| 20260905113230 | 68 | 299 | 3.5 | 7.8 | 0.00 | 0.00 | 0.00 | 73 | 1014.5 |
| 20260905113132 | 68 | 295 | 3.5 | 7.8 | 0.00 | 0.00 | 0.00 | 74 | 1014.5 |
| 20260905113030 | 68 | 180 | 3.5 | 7.8 | 0.00 | 0.00 | 0.00 | 74 | 1014.5 |
| 20260905112931 | 68 | 306 | 2.6 | 7.8 | 0.00 | 0.00 | 0.00 | 74 | 1014.5 |
| 20260905112831 | 68 | 180 | 2.6 | 9.6 | 0.00 | 0.00 | 0.00 | 74 | 1014.6 |
| 20260905112731 | 68 | 278 | 2.6 | 9.6 | 0.00 | 0.00 | 0.00 | 74 | 1014.5 |
| 20260905112631 | 68 | 264 | 2.6 | 9.6 | 0.00 | 0.00 | 0.00 | 74 | 1014.5 |
| 20260905112529 | 68 | 263 | 2.6 | 9.6 | 0.00 | 0.00 | 0.00 | 74 | 1014.5 |
| 20260905112430 | 68 | 180 | 2.6 | 9.6 | 0.00 | 0.00 | 0.00 | 74 | 1014.4 |
| 20260905112331 | 68 | 180 | 2.6 | 9.6 | 0.00 | 0.00 | 0.00 | 74 | 1014.4 |
| 20260905112231 | 68 | 180 | 2.6 | 9.6 | 0.00 | 0.00 | 0.00 | 74 | 1014.4 |
| 20260905112134 | 68 | 180 | 2.6 | 9.6 | 0.00 | 0.00 | 0.00 | 74 | 1014.4 |
| 20260905112031 | 68 | 180 | 2.6 | 9.6 | 0.00 | 0.00 | 0.00 | 74 | 1014.4 |
| 20260905111930 | 68 | 284 | 2.6 | 9.6 | 0.00 | 0.00 | 0.00 | 74 | 1014.4 |
| 20260905111831 | 68 | 180 | 3.5 | 11.3 | 0.00 | 0.00 | 0.00 | 74 | 1014.4 |
| 20260905111731 | 68 | 180 | 3.5 | 11.3 | 0.00 | 0.00 | 0.00 | 74 | 1014.5 |
| 20260905111630 | 68 | 180 | 3.5 | 11.3 | 0.00 | 0.00 | 0.00 | 74 | 1014.5 |
| 20260905111529 | 68 | 180 | 3.5 | 11.3 | 0.00 | 0.00 | 0.00 | 74 | 1014.5 |
| 20260905111430 | 68 | 180 | 3.5 | 11.3 | 0.00 | 0.00 | 0.00 | 74 | 1014.5 |
| 20260905111331 | 68 | 262 | 3.5 | 11.3 | 0.00 | 0.00 | 0.00 | 74 | 1014.6 |
| 20260905111230 | 68 | 283 | 3.5 | 11.3 | 0.00 | 0.00 | 0.00 | 74 | 1014.6 |
| 20260905111132 | 68 | 264 | 3.5 | 11.3 | 0.00 | 0.00 | 0.00 | 74 | 1014.6 |
| 20260905111031 | 68 | 268 | 3.5 | 11.3 | 0.00 | 0.00 | 0.00 | 74 | 1014.7 |
| 20260905110930 | 68 | 281 | 3.5 | 11.3 | 0.00 | 0.00 | 0.00 | 74 | 1014.7 |
| 20260905110831 | 68 | 260 | 3.5 | 12.2 | 0.00 | 0.00 | 0.00 | 74 | 1014.8 |
| 20260905110730 | 68 | 252 | 3.5 | 12.2 | 0.00 | 0.00 | 0.00 | 74 | 1014.8 |
| 20260905110629 | 68 | 277 | 3.5 | 12.2 | 0.00 | 0.00 | 0.00 | 74 | 1014.8 |
| 20260905110530 | 68 | 317 | 3.5 | 12.2 | 0.00 | 0.00 | 0.00 | 74 | 1014.9 |
| 20260905110431 | 68 | 289 | 4.3 | 12.2 | 0.00 | 0.00 | 0.00 | 74 | 1014.9 |
| 20260905110331 | 68 | 258 | 4.3 | 12.2 | 0.00 | 0.00 | 0.00 | 74 | 1014.8 |
| 20260905110230 | 68 | 258 | 4.3 | 12.2 | 0.00 | 0.00 | 0.00 | 74 | 1014.8 |
| 20260905110130 | 68 | 262 | 4.3 | 12.2 | 0.00 | 0.00 | 0.00 | 74 | 1014.9 |
| 20260905110031 | 68 | 255 | 4.3 | 12.2 | 0.00 | 0.00 | 0.00 | 74 | 1014.8 |
| 20260905105933 | 68 | 289 | 4.3 | 12.2 | 0.00 | 0.00 | 0.00 | 74 | 1014.8 |
| 20260905105831 | 68 | 264 | 4.3 | 9.6 | 0.00 | 0.00 | 0.00 | 74 | 1014.8 |
| 20260905105731 | 68 | 272 | 4.3 | 9.6 | 0.00 | 0.00 | 0.00 | 74 | 1014.8 |
| 20260905105632 | 68 | 335 | 4.3 | 9.6 | 0.00 | 0.00 | 0.00 | 74 | 1014.8 |
| 20260905105530 | 68 | 241 | 4.3 | 9.6 | 0.00 | 0.00 | 0.00 | 74 | 1014.8 |
| 20260905105434 | 68 | 258 | 4.3 | 9.6 | 0.00 | 0.00 | 0.00 | 74 | 1014.8 |
| 20260905105330 | 68 | 327 | 4.3 | 13.0 | 0.00 | 0.00 | 0.00 | 74 | 1014.8 |
| 20260905105232 | 68 | 281 | 4.3 | 13.0 | 0.00 | 0.00 | 0.00 | 74 | 1014.8 |
| 20260905105131 | 68 | 270 | 4.3 | 13.0 | 0.00 | 0.00 | 0.00 | 74 | 1014.8 |
| 20260905105032 | 68 | 268 | 4.3 | 13.0 | 0.00 | 0.00 | 0.00 | 74 | 1014.8 |
| 20260905104929 | 68 | 266 | 4.3 | 13.0 | 0.00 | 0.00 | 0.00 | 74 | 1014.9 |
| 20260905104830 | 68 | 297 | 5.2 | 13.0 | 0.00 | 0.00 | 0.00 | 74 | 1014.9 |
| 20260905104730 | 68 | 268 | 5.2 | 13.0 | 0.00 | 0.00 | 0.00 | 74 | 1014.9 |
| 20260905104630 | 68 | 232 | 5.2 | 13.0 | 0.00 | 0.00 | 0.00 | 74 | 1014.9 |
| 20260905104531 | 68 | 251 | 5.2 | 13.0 | 0.00 | 0.00 | 0.00 | 74 | 1014.8 |
| 20260905104430 | 68 | 258 | 4.3 | 13.0 | 0.00 | 0.00 | 0.00 | 74 | 1014.8 |
| 20260905104329 | 68 | 256 | 4.3 | 9.6 | 0.00 | 0.00 | 0.00 | 75 | 1014.8 |
| 20260905104233 | 68 | 269 | 4.3 | 9.6 | 0.00 | 0.00 | 0.00 | 75 | 1014.9 |
| 20260905104131 | 68 | 269 | 4.3 | 9.6 | 0.00 | 0.00 | 0.00 | 74 | 1014.9 |
| 20260905104030 | 68 | 267 | 4.3 | 9.6 | 0.00 | 0.00 | 0.00 | 75 | 1015.0 |
| 20260905103930 | 68 | 265 | 3.5 | 9.6 | 0.00 | 0.00 | 0.00 | 75 | 1015.1 |
| 20260905103831 | 68 | 275 | 2.6 | 7.8 | 0.00 | 0.00 | 0.00 | 74 | 1015.1 |
| 20260905103732 | 68 | 337 | 2.6 | 7.8 | 0.00 | 0.00 | 0.00 | 74 | 1015.1 |
| 20260905103629 | 68 | 258 | 2.6 | 7.8 | 0.00 | 0.00 | 0.00 | 74 | 1015.2 |
| 20260905103532 | 68 | 262 | 1.7 | 7.8 | 0.00 | 0.00 | 0.00 | 75 | 1015.1 |
| 20260905103429 | 68 | 285 | 1.7 | 7.8 | 0.00 | 0.00 | 0.00 | 75 | 1015.1 |
| 20260905103331 | 68 | 264 | 1.7 | 7.8 | 0.00 | 0.00 | 0.00 | 75 | 1015.2 |
| 20260905103232 | 68 | 272 | 1.7 | 6.1 | 0.00 | 0.00 | 0.00 | 74 | 1015.3 |
| 20260905103132 | 68 | 258 | 1.7 | 6.1 | 0.00 | 0.00 | 0.00 | 74 | 1015.4 |
| 20260905103030 | 68 | 243 | 0.9 | 4.3 | 0.00 | 0.00 | 0.00 | 74 | 1015.4 |
| 20260905102932 | 68 | 260 | 0.9 | 4.3 | 0.00 | 0.00 | 0.00 | 74 | 1015.5 |
| 20260905102831 | 68 | 221 | 1.7 | 4.3 | 0.00 | 0.00 | 0.00 | 74 | 1015.5 |
| 20260905102731 | 68 | 221 | 1.7 | 7.0 | 0.00 | 0.00 | 0.00 | 74 | 1015.4 |
| 20260905102630 | 68 | 211 | 1.7 | 7.0 | 0.00 | 0.00 | 0.00 | 74 | 1015.4 |
| 20260905102531 | 68 | 171 | 2.6 | 7.0 | 0.00 | 0.00 | 0.00 | 74 | 1015.4 |
| 20260905102430 | 68 | 266 | 2.6 | 7.8 | 0.00 | 0.00 | 0.00 | 74 | 1015.4 |
| 20260905102329 | 68 | 210 | 2.6 | 8.7 | 0.00 | 0.00 | 0.00 | 74 | 1015.4 |
| 20260905102230 | 68 | 245 | 3.5 | 11.3 | 0.00 | 0.00 | 0.00 | 74 | 1015.5 |
| 20260905102130 | 68 | 259 | 4.3 | 13.9 | 0.00 | 0.00 | 0.00 | 74 | 1015.5 |
| 20260905102030 | 68 | 180 | 4.3 | 13.9 | 0.00 | 0.00 | 0.00 | 74 | 1015.5 |
| 20260905101930 | 68 | 150 | 4.3 | 13.9 | 0.00 | 0.00 | 0.00 | 74 | 1015.6 |
| 20260905101832 | 68 | 180 | 5.2 | 13.9 | 0.00 | 0.00 | 0.00 | 74 | 1015.6 |
| 20260905101729 | 68 | 272 | 5.2 | 13.9 | 0.00 | 0.00 | 0.00 | 74 | 1015.4 |
| 20260905101629 | 68 | 258 | 5.2 | 13.9 | 0.00 | 0.00 | 0.00 | 74 | 1015.4 |
| 20260905101531 | 68 | 285 | 5.2 | 13.9 | 0.00 | 0.00 | 0.00 | 75 | 1015.3 |
| 20260905101431 | 68 | 270 | 5.2 | 13.9 | 0.00 | 0.00 | 0.00 | 75 | 1015.3 |
| 20260905101330 | 68 | 271 | 5.2 | 13.9 | 0.00 | 0.00 | 0.00 | 75 | 1015.3 |
| 20260905101230 | 68 | 327 | 5.2 | 13.9 | 0.00 | 0.00 | 0.00 | 75 | 1015.3 |
| 20260905101132 | 68 | 180 | 5.2 | 12.2 | 0.00 | 0.00 | 0.00 | 75 | 1015.3 |
| 20260905101031 | 68 | 180 | 5.2 | 12.2 | 0.00 | 0.00 | 0.00 | 75 | 1015.2 |
| 20260905100930 | 68 | 180 | 5.2 | 12.2 | 0.00 | 0.00 | 0.00 | 75 | 1015.1 |
| 20260905100833 | 68 | 180 | 6.1 | 12.2 | 0.00 | 0.00 | 0.00 | 75 | 1015.1 |
| 20260905100732 | 68 | 180 | 5.2 | 12.2 | 0.00 | 0.00 | 0.00 | 75 | 1015.1 |
| 20260905100630 | 68 | 180 | 5.2 | 12.2 | 0.00 | 0.00 | 0.00 | 75 | 1015.1 |
| 20260905100529 | 68 | 180 | 4.3 | 12.2 | 0.00 | 0.00 | 0.00 | 75 | 1015.2 |
| 20260905100432 | 68 | 267 | 4.3 | 12.2 | 0.00 | 0.00 | 0.00 | 75 | 1015.3 |
| 20260905100330 | 69 | 180 | 4.3 | 12.2 | 0.00 | 0.00 | 0.00 | 76 | 1015.3 |
| 20260905100229 | 69 | 180 | 4.3 | 12.2 | 0.00 | 0.00 | 0.00 | 76 | 1015.3 |
| 20260905100130 | 69 | 180 | 4.3 | 9.6 | 0.00 | 0.00 | 0.00 | 76 | 1015.3 |
| 20260905100028 | 69 | 180 | 4.3 | 10.4 | 0.00 | 0.00 | 0.00 | 76 | 1015.2 |
| 20260905095926 | 69 | 180 | 4.3 | 10.4 | 0.00 | 0.00 | 0.00 | 76 | 1015.2 |